KC5DAQ-2 Weather Reports


Display with metric or nautical units.
time (UTC)temp
F
wind
direction
speed
MPH
gust
MPH
rain 1hr
in
rain 24hr
in
rain mn
in
humidity
%
barometer
mb
20260906000704 79 96 0.0 0.0 0.00 0.31 0.31 96 1004.1
20260906000605 79 96 0.0 0.0 0.00 0.31 0.31 96 1004.1
20260906000503 79 96 0.0 0.0 0.00 0.31 0.31 96 1004.2
20260906000403 79 96 0.0 0.0 0.00 0.31 0.31 96 1004.2
20260906000304 79 96 0.0 0.0 0.01 0.31 0.31 96 1004.2
20260906000204 79 96 0.0 0.0 0.01 0.31 0.31 96 1004.3
20260906000104 79 96 0.0 0.0 0.01 0.31 0.31 96 1004.2
20260906000004 79 96 0.0 0.0 0.01 0.30 0.31 96 1004.2
20260905235903 79 96 0.0 0.0 0.01 0.30 0.31 95 1004.2
20260905235807 79 96 0.0 0.0 0.01 0.30 0.31 95 1004.3
20260905235703 79 96 0.0 0.0 0.01 0.30 0.31 95 1004.1
20260905235604 79 96 0.0 0.0 0.01 0.30 0.31 95 1004.2
20260905235504 79 96 0.0 0.0 0.01 0.30 0.31 95 1004.1
20260905235403 79 96 0.0 0.0 0.01 0.30 0.31 95 1004.2
20260905235306 79 96 0.0 0.0 0.01 0.30 0.31 94 1004.1
20260905235206 79 96 0.0 0.0 0.01 0.30 0.31 94 1004.2
20260905235103 79 96 0.0 0.0 0.01 0.30 0.31 94 1004.2
20260905235004 79 96 0.0 0.0 0.01 0.30 0.31 94 1004.2
20260905234902 79 96 0.0 0.0 0.01 0.30 0.31 94 1004.2
20260905234803 79 96 0.0 0.0 0.01 0.30 0.31 94 1004.1
20260905234703 79 96 0.0 0.0 0.01 0.30 0.31 94 1004.1
20260905234604 79 96 0.0 0.0 0.01 0.30 0.31 94 1004.2
20260905234505 79 96 0.0 0.0 0.01 0.30 0.31 94 1004.1
20260905234403 79 96 0.0 0.0 0.01 0.30 0.31 94 1004.1
20260905234303 80 96 0.0 0.0 0.01 0.30 0.31 94 1004.1
20260905234204 80 96 0.0 0.0 0.01 0.30 0.31 94 1004.1
20260905234102 80 96 0.0 0.0 0.02 0.30 0.31 94 1004.1
20260905234003 80 96 0.0 0.0 0.02 0.30 0.31 94 1004.1
20260905233905 80 96 0.0 0.0 0.03 0.30 0.31 94 1004.1
20260905233803 80 96 0.0 0.0 0.04 0.30 0.31 94 1004.0
20260905233703 80 96 0.0 0.0 0.05 0.30 0.31 94 1004.0
20260905233603 80 96 0.0 0.0 0.07 0.30 0.31 93 1003.9
20260905233503 80 96 0.0 0.0 0.09 0.30 0.31 93 1003.9
20260905233405 80 96 0.0 0.0 0.10 0.30 0.31 93 1003.9
20260905233302 80 96 0.0 0.0 0.11 0.30 0.31 93 1003.9
20260905233203 80 96 0.0 0.0 0.12 0.30 0.31 93 1004.0
20260905233102 80 96 0.0 0.0 0.14 0.30 0.31 92 1004.0
20260905233003 80 96 0.0 0.0 0.16 0.30 0.31 92 1003.9
20260905232902 80 96 0.0 0.0 0.18 0.30 0.31 92 1004.0
20260905232804 80 96 0.0 0.0 0.19 0.30 0.31 92 1004.0
20260905232703 80 96 0.0 0.0 0.21 0.30 0.31 92 1004.0
20260905232604 80 96 0.0 0.0 0.24 0.30 0.31 91 1004.0
20260905232503 80 96 0.0 0.0 0.26 0.30 0.31 91 1004.1
20260905232404 80 96 0.0 0.0 0.27 0.30 0.31 91 1004.1
20260905232305 81 96 0.0 0.0 0.28 0.30 0.31 91 1004.2
20260905232205 81 96 0.0 0.0 0.30 0.30 0.31 91 1004.2
20260905232105 81 96 0.0 0.0 0.30 0.30 0.31 90 1004.3
20260905232005 81 96 0.0 0.0 0.31 0.30 0.31 90 1004.2
20260905231903 81 96 0.0 0.0 0.31 0.30 0.31 90 1004.4
20260905231803 81 96 0.0 0.0 0.31 0.30 0.31 90 1004.3
20260905231705 81 96 0.0 0.0 0.31 0.30 0.31 90 1004.4
20260905231606 81 96 0.0 0.0 0.31 0.30 0.31 90 1004.5
20260905231504 81 96 0.0 0.0 0.31 0.30 0.31 89 1004.6
20260905231402 81 96 0.0 0.0 0.31 0.30 0.31 89 1004.6
20260905231302 82 96 0.0 0.0 0.31 0.30 0.31 89 1004.5
20260905231203 82 96 0.0 0.0 0.31 0.30 0.31 88 1004.6
20260905231104 82 96 0.0 0.0 0.31 0.30 0.31 88 1004.6
20260905231003 82 96 0.0 0.0 0.31 0.30 0.31 88 1004.6
20260905230902 82 96 0.0 0.0 0.31 0.30 0.31 88 1004.6
20260905230803 82 96 0.0 0.0 0.31 0.30 0.31 88 1004.5
20260905230703 82 96 0.0 0.0 0.31 0.30 0.31 88 1004.6
20260905230604 82 96 0.0 0.0 0.31 0.30 0.31 88 1004.6
20260905230503 83 96 0.0 0.0 0.31 0.30 0.31 88 1004.6
20260905230404 83 96 0.0 0.0 0.31 0.30 0.30 88 1004.5
20260905230305 83 96 0.0 0.0 0.30 0.30 0.30 88 1004.5
20260905230206 83 96 0.0 0.0 0.30 0.30 0.30 88 1004.4
20260905230103 83 96 0.0 0.0 0.30 0.30 0.30 88 1004.3
20260905230002 83 96 0.0 0.0 0.30 0.00 0.30 88 1004.4
20260905225903 83 96 0.0 0.0 0.30 0.00 0.30 87 1004.2
20260905225804 84 96 0.0 0.0 0.30 0.00 0.30 87 1004.3
20260905225705 84 96 0.0 0.0 0.30 0.00 0.30 87 1004.2
20260905225602 84 96 0.0 0.0 0.30 0.00 0.30 87 1004.3
20260905225503 84 96 0.0 0.0 0.30 0.00 0.30 86 1004.2
20260905225403 84 96 0.0 0.0 0.30 0.00 0.30 86 1004.2
20260905225305 85 96 0.0 0.0 0.30 0.00 0.30 86 1004.2
20260905225204 85 96 0.0 0.0 0.30 0.00 0.30 85 1004.1
20260905225103 85 96 0.0 0.0 0.30 0.00 0.30 85 1004.1
20260905225006 85 96 0.0 0.0 0.30 0.00 0.30 84 1004.1
20260905224903 85 96 0.0 0.0 0.30 0.00 0.30 84 1004.1
20260905224803 85 96 0.0 0.0 0.30 0.00 0.30 84 1004.0
20260905224704 86 96 0.0 0.0 0.30 0.00 0.30 84 1004.1
20260905224603 86 96 0.0 0.0 0.30 0.01 0.30 84 1004.1
20260905224502 86 96 0.0 0.0 0.30 0.01 0.30 84 1004.0
20260905224406 86 96 0.0 0.0 0.30 0.01 0.30 84 1004.1
20260905224305 87 96 0.0 0.0 0.30 0.01 0.30 84 1004.0
20260905224204 87 96 0.0 0.0 0.30 0.01 0.29 83 1004.1
20260905224102 87 96 0.0 0.0 0.29 0.01 0.29 83 1004.0
20260905224007 87 96 0.0 0.0 0.29 0.01 0.28 83 1004.2
20260905223904 87 96 0.0 0.0 0.28 0.01 0.26 82 1004.2
20260905223804 88 96 0.0 0.0 0.27 0.01 0.26 82 1004.3
20260905223702 88 96 0.0 0.0 0.26 0.01 0.24 82 1004.3
20260905223607 88 96 0.0 0.0 0.24 0.01 0.22 82 1004.4
20260905223503 88 96 0.0 0.0 0.22 0.01 0.21 82 1004.4
20260905223404 89 94 0.0 0.0 0.21 0.01 0.20 82 1004.3
20260905223304 89 94 0.0 0.0 0.20 0.01 0.19 82 1004.3
20260905223202 89 94 0.0 0.0 0.19 0.01 0.17 82 1004.2
20260905223103 89 94 0.0 0.0 0.17 0.01 0.15 82 1004.2
20260905223004 89 94 0.0 0.0 0.15 0.01 0.13 81 1004.1
20260905222902 90 94 0.0 0.0 0.13 0.01 0.12 81 1004.1
20260905222807 90 94 0.0 0.0 0.12 0.01 0.10 82 1004.2
20260905222705 90 168 0.0 0.0 0.10 0.01 0.07 81 1004.1
20260905222603 90 168 0.0 0.0 0.07 0.01 0.05 81 1004.1
20260905222502 90 168 0.0 0.0 0.05 0.01 0.04 81 1004.1
20260905222402 91 168 0.0 0.0 0.04 0.01 0.03 80 1004.1
20260905222306 91 169 0.0 0.0 0.03 0.01 0.01 80 1004.1
20260905222205 91 169 0.0 0.0 0.01 0.01 0.01 80 1004.1
20260905222102 91 265 0.0 0.0 0.01 0.01 0.00 79 1004.2
20260905222000 91 266 0.0 0.0 0.00 0.01 0.00 79 1004.2
20260905221852 91 261 0.0 0.0 0.00 0.01 0.00 79 1004.2
20260905221737 92 245 0.0 0.0 0.00 0.01 0.00 79 1004.2
20260905221632 92 72 0.0 0.0 0.00 0.01 0.00 79 1004.3
20260905221532 92 72 0.0 0.0 0.00 0.01 0.00 79 1004.3
20260905221431 92 72 0.0 0.0 0.00 0.01 0.00 79 1004.1
20260905221336 92 72 0.0 0.0 0.00 0.01 0.00 79 1004.1
20260905221234 92 72 0.0 0.0 0.00 0.01 0.00 79 1004.0
20260905221132 92 206 0.0 0.0 0.00 0.01 0.00 78 1004.1
20260905221031 92 207 0.0 0.0 0.00 0.01 0.00 78 1004.0
20260905220933 93 207 0.0 0.0 0.00 0.01 0.00 78 1004.0
20260905220833 93 213 0.0 0.0 0.00 0.01 0.00 78 1004.0
20260905220732 93 166 0.0 0.0 0.00 0.01 0.00 78 1003.9
20260905220631 93 166 0.0 0.0 0.00 0.01 0.00 78 1003.9
20260905220531 93 166 0.0 0.0 0.00 0.01 0.00 78 1004.0
20260905220432 93 140 0.0 0.0 0.00 0.01 0.00 78 1004.0
20260905220333 93 138 0.0 0.0 0.00 0.01 0.00 78 1004.0
20260905220231 93 262 0.0 0.0 0.00 0.01 0.00 78 1004.0
20260905220132 94 73 0.0 0.0 0.00 0.01 0.00 78 1003.9
20260905220031 94 59 0.0 0.0 0.00 0.01 0.00 77 1003.8
20260905215931 94 25 0.0 0.0 0.00 0.01 0.00 77 1003.6
20260905215832 94 25 0.0 0.0 0.00 0.01 0.00 77 1003.6
20260905215732 94 28 0.0 0.0 0.00 0.01 0.00 77 1003.6
20260905215631 94 62 0.0 0.0 0.00 0.01 0.00 77 1003.5
20260905215529 94 107 0.0 0.0 0.00 0.01 0.00 77 1003.4
20260905215424 94 202 0.0 0.0 0.00 0.01 0.00 77 1003.4
20260905215323 94 202 0.0 0.0 0.00 0.01 0.00 77 1003.4
20260905215221 94 200 0.0 0.0 0.00 0.01 0.00 77 1003.3
20260905215123 94 80 0.0 0.0 0.00 0.01 0.00 77 1003.4
20260905215021 94 80 0.0 0.0 0.00 0.01 0.00 77 1003.4
20260905214922 94 80 0.0 0.0 0.00 0.01 0.00 77 1003.4
20260905214821 94 80 0.0 0.0 0.00 0.01 0.00 77 1003.3
20260905214721 94 80 0.0 0.0 0.00 0.01 0.00 77 1003.3
20260905214621 94 80 0.0 0.0 0.00 0.01 0.00 77 1003.3
20260905214522 94 80 0.0 0.0 0.00 0.01 0.00 77 1003.3
20260905214421 95 80 0.0 0.0 0.00 0.01 0.00 77 1003.2
20260905214321 95 80 0.0 0.0 0.00 0.01 0.00 77 1003.2
20260905214223 95 97 0.0 0.0 0.00 0.01 0.00 77 1003.0
20260905214121 95 97 0.0 0.0 0.00 0.01 0.00 77 1003.1
20260905214021 95 97 0.0 0.0 0.00 0.01 0.00 77 1003.1
20260905213920 95 97 0.0 0.0 0.00 0.01 0.00 76 1003.1
20260905213820 95 97 0.0 0.0 0.00 0.01 0.00 76 1003.0
20260905213721 95 97 0.0 0.0 0.00 0.01 0.00 76 1003.1
20260905213621 95 97 0.0 0.0 0.00 0.01 0.00 76 1003.1
20260905213521 95 97 0.0 0.0 0.00 0.01 0.00 76 1003.1
20260905213424 95 97 0.0 0.0 0.00 0.01 0.00 76 1003.1
20260905213319 95 114 0.0 0.0 0.00 0.01 0.00 76 1003.1
20260905213217 95 114 0.0 0.0 0.00 0.01 0.00 76 1003.1
20260905213113 95 114 0.0 0.0 0.00 0.01 0.00 75 1003.1
20260905213007 95 109 0.0 0.0 0.00 0.01 0.00 75 1003.1
20260905212905 95 109 0.0 0.0 0.00 0.01 0.00 75 1003.2
20260905212806 95 109 0.0 0.0 0.00 0.01 0.00 75 1003.2
20260905212702 95 109 0.0 0.0 0.00 0.01 0.00 75 1003.1
20260905212602 95 109 0.0 0.0 0.00 0.01 0.00 75 1003.2
20260905212505 95 109 0.0 0.0 0.00 0.01 0.00 75 1003.2
20260905212404 95 109 0.0 0.0 0.00 0.01 0.00 75 1003.2
20260905212306 95 109 0.0 0.0 0.00 0.01 0.00 75 1003.2
20260905212205 95 109 0.0 0.0 0.00 0.01 0.00 75 1003.3
20260905212103 95 109 0.0 0.0 0.00 0.01 0.00 74 1003.3
20260905212003 95 109 0.0 0.0 0.00 0.01 0.00 74 1003.3
20260905211902 95 109 0.0 0.0 0.00 0.01 0.00 75 1003.3
20260905211805 95 168 0.0 0.0 0.00 0.01 0.00 75 1003.3
20260905211700 95 168 0.0 0.0 0.00 0.01 0.00 75 1003.3
20260905211556 95 169 0.0 0.0 0.00 0.01 0.00 74 1003.3
20260905211449 95 169 0.0 0.0 0.00 0.01 0.00 74 1003.3
20260905211347 95 169 0.0 0.0 0.00 0.01 0.00 74 1003.4
20260905211248 96 169 0.0 0.0 0.00 0.01 0.00 74 1003.4
20260905211146 96 169 0.0 0.0 0.00 0.01 0.00 74 1003.3
20260905211045 96 169 0.0 0.0 0.00 0.01 0.00 74 1003.4
20260905210943 96 169 0.0 0.0 0.00 0.01 0.00 74 1003.3
20260905210840 96 169 0.0 0.0 0.00 0.01 0.00 74 1003.3
20260905210733 96 169 0.0 0.0 0.00 0.01 0.00 74 1003.3
20260905210634 96 169 0.0 0.0 0.00 0.01 0.00 74 1003.3
20260905210532 96 169 0.0 0.0 0.00 0.01 0.00 75 1003.3
20260905210432 96 169 0.0 0.0 0.00 0.01 0.00 75 1003.3
20260905210333 96 169 0.0 0.0 0.00 0.01 0.00 75 1003.2
20260905210227 96 169 0.0 0.0 0.00 0.01 0.00 75 1003.3
20260905210123 96 169 0.0 0.0 0.00 0.01 0.00 75 1003.3
20260905210021 96 169 0.0 0.0 0.00 0.01 0.00 75 1003.3
20260905205921 96 169 0.0 0.0 0.00 0.01 0.00 75 1003.2
20260905205819 96 169 0.0 0.0 0.00 0.01 0.00 75 1003.2
20260905205720 96 169 0.0 0.0 0.00 0.01 0.00 75 1003.3
20260905205621 96 169 0.0 0.0 0.00 0.01 0.00 75 1003.3
20260905205520 96 169 0.0 0.0 0.00 0.01 0.00 75 1003.3
20260905205419 96 169 0.0 0.0 0.00 0.01 0.00 75 1003.3
20260905205319 96 169 0.0 0.0 0.00 0.01 0.00 75 1003.3
20260905205222 96 169 0.0 0.0 0.00 0.01 0.00 75 1003.4
20260905205119 96 169 0.0 0.0 0.00 0.01 0.00 75 1003.3
20260905205020 96 169 0.0 0.0 0.00 0.01 0.00 75 1003.3
20260905204920 96 169 0.0 0.0 0.00 0.01 0.00 75 1003.3
20260905204823 96 169 0.0 0.0 0.00 0.01 0.00 74 1003.3
20260905204721 96 169 0.0 0.0 0.00 0.01 0.00 74 1003.3
20260905204621 96 169 0.0 0.0 0.00 0.01 0.00 74 1003.4
20260905204521 96 169 0.0 0.0 0.00 0.01 0.00 75 1003.4
20260905204421 96 169 0.0 0.0 0.00 0.01 0.00 75 1003.4
20260905204321 96 169 0.0 0.0 0.00 0.01 0.00 75 1003.3
20260905204222 96 169 0.0 0.0 0.00 0.01 0.00 75 1003.4
20260905204119 96 169 0.0 0.0 0.00 0.01 0.00 75 1003.4
20260905204019 96 169 0.0 0.0 0.00 0.01 0.00 75 1003.4
20260905203921 96 169 0.0 0.0 0.00 0.01 0.00 75 1003.4
20260905203819 96 173 0.0 0.0 0.00 0.01 0.00 75 1003.4
20260905203720 96 173 0.0 0.0 0.00 0.01 0.00 75 1003.4
20260905203621 96 173 0.0 0.0 0.00 0.01 0.00 75 1003.3
20260905203523 96 173 0.0 0.0 0.00 0.01 0.00 75 1003.3
20260905203420 96 173 0.0 0.0 0.00 0.01 0.00 75 1003.3
20260905203319 96 173 0.0 0.0 0.00 0.01 0.00 75 1003.4
20260905203221 96 173 0.0 0.0 0.00 0.01 0.00 75 1003.3
20260905203119 96 173 0.0 0.0 0.00 0.01 0.00 75 1003.3
20260905203019 96 173 0.0 0.0 0.00 0.01 0.00 75 1003.4
20260905202919 96 169 0.0 0.0 0.00 0.01 0.00 75 1003.4
20260905202819 96 171 0.0 0.0 0.00 0.01 0.00 76 1003.5
20260905202719 96 140 0.0 0.0 0.00 0.01 0.00 76 1003.5
20260905202621 96 87 0.0 0.0 0.00 0.01 0.00 76 1003.5
20260905202520 96 86 0.0 0.0 0.00 0.01 0.00 76 1003.5
20260905202419 96 86 0.0 0.0 0.00 0.01 0.00 76 1003.5
20260905202320 96 86 0.0 0.0 0.00 0.01 0.00 76 1003.6
20260905202219 96 86 0.0 0.0 0.00 0.01 0.00 76 1003.5
20260905202119 96 86 0.0 0.0 0.00 0.01 0.00 75 1003.5
20260905202020 96 86 0.0 0.0 0.00 0.01 0.00 75 1003.5
20260905201920 96 71 0.0 0.0 0.00 0.01 0.00 75 1003.6
20260905201820 96 209 0.0 0.0 0.00 0.01 0.00 75 1003.6
20260905201718 96 210 0.0 0.0 0.00 0.01 0.00 75 1003.6
20260905201618 96 210 0.0 0.0 0.00 0.01 0.00 75 1003.6
20260905201520 96 210 0.0 0.0 0.00 0.01 0.00 75 1003.6
20260905201420 96 210 0.0 0.0 0.00 0.01 0.00 74 1003.7
20260905201320 96 209 0.0 0.0 0.00 0.01 0.00 74 1003.8
20260905201221 96 207 0.0 0.0 0.00 0.01 0.00 75 1003.8
20260905201120 96 209 0.0 0.0 0.00 0.01 0.00 75 1003.8
20260905201018 96 209 0.0 0.0 0.00 0.01 0.00 74 1003.9
20260905200920 96 209 0.0 0.0 0.00 0.01 0.00 75 1003.8
20260905200818 96 209 0.0 0.0 0.00 0.01 0.00 75 1003.9
20260905200718 96 209 0.0 0.0 0.00 0.01 0.00 75 1003.9
20260905200620 96 209 0.0 0.0 0.00 0.01 0.00 74 1003.9
20260905200520 96 209 0.0 0.0 0.00 0.01 0.00 74 1003.9
20260905200418 96 209 0.0 0.0 0.00 0.01 0.00 74 1003.9
20260905200319 96 209 0.0 0.0 0.00 0.01 0.00 74 1003.9
20260905200218 96 209 0.0 0.0 0.00 0.01 0.00 74 1003.9
20260905200115 96 209 0.0 0.0 0.00 0.01 0.00 74 1003.9
20260905200013 96 209 0.0 0.0 0.00 0.01 0.00 73 1003.9
20260905195906 97 209 0.0 0.0 0.00 0.01 0.00 73 1003.9
20260905195805 97 209 0.0 0.0 0.00 0.01 0.00 73 1004.0
20260905195704 97 209 0.0 0.0 0.00 0.01 0.00 73 1004.0
20260905195604 97 209 0.0 0.0 0.00 0.01 0.00 73 1004.0
20260905195503 97 209 0.0 0.0 0.00 0.01 0.00 73 1003.9
20260905195402 97 209 0.0 0.0 0.00 0.01 0.00 73 1004.0
20260905195306 97 209 0.0 0.0 0.00 0.01 0.00 73 1003.9
20260905195203 97 56 0.0 0.0 0.00 0.01 0.00 73 1003.9
20260905195103 97 55 0.0 0.0 0.00 0.01 0.00 74 1003.9
20260905195004 97 55 0.0 0.0 0.00 0.01 0.00 74 1003.9
20260905194902 97 58 0.0 0.0 0.00 0.01 0.00 74 1003.9
20260905194806 97 58 0.0 0.0 0.00 0.01 0.00 74 1003.8
20260905194703 97 30 0.0 0.0 0.00 0.01 0.00 74 1003.9
20260905194603 97 27 0.0 0.0 0.00 0.01 0.00 74 1003.9
20260905194504 97 25 0.0 0.0 0.00 0.01 0.00 74 1003.9
20260905194405 96 25 0.0 0.0 0.00 0.01 0.00 74 1003.9
20260905194304 96 51 0.0 0.0 0.00 0.01 0.00 74 1003.9
20260905194203 96 45 0.0 0.0 0.00 0.01 0.00 74 1004.0
20260905194102 96 39 0.0 0.0 0.00 0.01 0.00 74 1004.0
20260905194002 96 27 0.0 0.0 0.00 0.01 0.00 74 1004.0
20260905193905 96 10 0.0 0.0 0.00 0.01 0.00 74 1004.0
20260905193804 96 0 0.0 0.0 0.00 0.01 0.00 74 1004.0
20260905193704 96 63 0.0 0.0 0.00 0.01 0.00 75 1004.1
20260905193603 96 63 0.0 0.0 0.00 0.01 0.00 75 1004.2
20260905193506 96 63 0.0 0.0 0.00 0.01 0.00 75 1004.1
20260905193404 95 62 0.0 0.0 0.00 0.01 0.00 75 1004.1
20260905193302 95 61 0.0 0.0 0.00 0.01 0.00 75 1004.2
20260905193202 95 66 0.0 0.0 0.00 0.01 0.00 75 1004.2
20260905193103 95 238 0.0 0.0 0.00 0.01 0.00 76 1004.2
20260905193004 95 42 0.0 0.0 0.00 0.01 0.00 76 1004.3
20260905192903 95 39 0.0 0.0 0.00 0.01 0.00 76 1004.2
20260905192803 95 65 0.0 0.0 0.00 0.01 0.00 76 1004.3
20260905192702 95 65 0.0 0.0 0.00 0.01 0.00 76 1004.3
20260905192606 94 65 0.0 0.0 0.00 0.01 0.00 76 1004.4
20260905192504 94 73 0.0 0.0 0.00 0.01 0.00 76 1004.4
20260905192402 94 73 0.0 0.0 0.00 0.01 0.00 76 1004.3
20260905192305 94 73 0.0 0.0 0.00 0.01 0.00 76 1004.4
20260905192204 94 49 0.0 0.0 0.00 0.01 0.00 77 1004.4
20260905192104 94 48 0.0 0.0 0.00 0.01 0.00 77 1004.4
20260905192004 94 62 0.0 0.0 0.00 0.01 0.00 77 1004.5
20260905191903 94 38 0.0 0.0 0.00 0.01 0.00 77 1004.5
20260905191806 94 38 0.0 0.0 0.00 0.01 0.00 76 1004.5
20260905191706 94 38 0.0 0.0 0.00 0.01 0.00 76 1004.5
20260905191604 94 38 0.0 0.0 0.00 0.01 0.00 76 1004.5
20260905191504 94 38 0.0 0.0 0.00 0.01 0.00 76 1004.5
20260905191402 94 37 0.0 0.0 0.00 0.01 0.00 76 1004.5
20260905191306 94 37 0.0 0.0 0.00 0.01 0.00 76 1004.6
20260905191204 94 54 0.0 0.0 0.00 0.01 0.00 76 1004.6
20260905191103 94 54 0.0 0.0 0.00 0.01 0.00 76 1004.6
20260905191002 95 54 0.0 0.0 0.00 0.01 0.00 76 1004.6
20260905190902 95 72 0.0 0.0 0.00 0.01 0.00 76 1004.7
20260905190804 95 276 0.0 0.0 0.00 0.01 0.00 76 1004.7
20260905190704 95 80 0.0 0.0 0.00 0.01 0.00 76 1004.7
20260905190602 95 80 0.0 0.0 0.00 0.01 0.00 76 1004.8
20260905190505 95 80 0.0 0.0 0.00 0.01 0.00 76 1004.8
20260905190406 95 80 0.0 0.0 0.00 0.01 0.00 76 1004.7
20260905190305 95 80 0.0 0.0 0.00 0.01 0.00 76 1004.8
20260905190202 95 80 0.0 0.0 0.00 0.01 0.00 75 1004.7
20260905190104 95 80 0.0 0.0 0.00 0.01 0.00 75 1004.7
20260905190006 95 80 0.0 0.0 0.00 0.01 0.00 75 1004.7
20260905185904 95 80 0.0 0.0 0.00 0.01 0.00 75 1004.8
20260905185803 95 80 0.0 0.0 0.00 0.01 0.00 75 1004.7
20260905185701 95 80 0.0 0.0 0.00 0.01 0.00 75 1004.7
20260905185602 96 80 0.0 0.0 0.00 0.01 0.00 75 1004.7
20260905185506 96 80 0.0 0.0 0.00 0.01 0.00 75 1004.7
20260905185403 96 80 0.0 0.0 0.00 0.01 0.00 75 1004.8
20260905185305 96 80 0.0 0.0 0.00 0.01 0.00 75 1004.8
20260905185206 96 83 0.0 0.0 0.00 0.01 0.00 75 1004.7
20260905185106 96 61 0.0 0.0 0.00 0.01 0.00 75 1004.8
20260905185005 96 62 0.0 0.0 0.00 0.01 0.00 75 1004.8
20260905184904 96 56 0.0 0.0 0.00 0.01 0.00 74 1004.8
20260905184803 96 47 0.0 0.0 0.00 0.01 0.00 74 1004.8
20260905184708 96 86 0.0 0.0 0.00 0.01 0.00 74 1004.8
20260905184605 96 76 0.0 0.0 0.00 0.01 0.00 74 1004.8
20260905184503 96 278 0.0 0.0 0.00 0.01 0.00 75 1004.8
20260905184402 96 250 0.0 0.0 0.00 0.01 0.00 75 1004.9
20260905184306 96 120 0.0 0.0 0.00 0.01 0.00 75 1004.9
20260905184205 96 114 0.0 0.0 0.00 0.01 0.00 75 1004.9
20260905184103 96 121 0.0 0.0 0.00 0.01 0.00 75 1005.0
20260905184003 96 124 0.0 0.0 0.00 0.01 0.00 75 1004.9
20260905183903 96 104 0.0 0.0 0.00 0.01 0.00 75 1005.0
20260905183804 95 104 0.0 0.0 0.00 0.01 0.00 75 1005.0
20260905183703 95 93 0.0 0.0 0.00 0.01 0.00 74 1005.0
20260905183603 95 61 0.0 0.0 0.00 0.01 0.00 75 1005.0
20260905183503 95 135 0.0 0.0 0.00 0.01 0.00 75 1004.9
20260905183405 95 1 0.0 0.0 0.00 0.01 0.00 75 1005.1
20260905183304 95 31 0.0 0.0 0.00 0.01 0.00 75 1005.0
20260905183202 95 31 0.0 0.0 0.00 0.01 0.00 75 1005.1
20260905183103 95 21 0.0 0.0 0.00 0.01 0.00 75 1005.1
20260905183004 94 21 0.0 0.0 0.00 0.01 0.00 75 1005.1
20260905182905 94 24 0.0 0.0 0.00 0.01 0.00 75 1005.2
20260905182804 94 24 0.0 0.0 0.00 0.01 0.00 75 1005.2
20260905182704 94 31 0.0 0.0 0.00 0.01 0.00 75 1005.2
20260905182602 94 152 0.0 0.0 0.00 0.01 0.00 75 1005.3
20260905182504 94 152 0.0 0.0 0.00 0.01 0.00 75 1005.3
20260905182403 94 152 0.0 0.0 0.00 0.01 0.00 75 1005.4
20260905182305 94 152 0.0 0.0 0.00 0.01 0.00 75 1005.4
20260905182204 93 69 0.0 0.0 0.00 0.01 0.00 75 1005.4
20260905182104 93 69 0.0 0.0 0.00 0.01 0.00 75 1005.3
20260905182004 93 69 0.0 0.0 0.00 0.01 0.00 76 1005.3
20260905181902 93 69 0.0 0.0 0.00 0.01 0.00 76 1005.4
20260905181804 92 82 0.0 0.0 0.00 0.01 0.00 76 1005.4
20260905181707 92 83 0.0 0.0 0.00 0.01 0.00 76 1005.4
20260905181605 92 78 0.0 0.0 0.00 0.01 0.00 76 1005.5
20260905181504 92 90 0.0 0.0 0.00 0.01 0.00 76 1005.5
20260905181403 92 117 0.0 0.0 0.00 0.01 0.00 76 1005.6
20260905181302 92 49 0.0 0.0 0.00 0.01 0.00 76 1005.6
20260905181205 91 54 0.0 0.0 0.00 0.01 0.00 76 1005.6
20260905181103 91 104 0.0 0.0 0.00 0.01 0.00 77 1005.6
20260905180957 91 71 0.0 0.0 0.00 0.01 0.00 77 1005.7
20260905180859 91 30 0.0 0.0 0.00 0.01 0.00 77 1005.7
20260905180756 91 107 0.0 0.0 0.00 0.01 0.00 77 1005.7
20260905180646 91 85 0.0 0.0 0.00 0.01 0.00 78 1005.7
20260905180541 91 4 0.0 0.0 0.00 0.01 0.00 78 1005.7
20260905180432 90 66 0.0 0.0 0.00 0.01 0.00 77 1005.7
20260905180330 90 66 0.0 0.0 0.00 0.01 0.00 77 1005.8
20260905180232 90 54 0.0 0.0 0.00 0.01 0.00 77 1005.7
20260905180131 90 63 0.0 0.0 0.00 0.01 0.00 77 1005.8
20260905180018 90 68 0.0 0.0 0.00 0.01 0.00 77 1005.8
20260905175916 90 66 0.0 0.0 0.00 0.01 0.00 77 1005.8
20260905175815 90 66 0.0 0.0 0.00 0.01 0.00 77 1005.9
20260905175717 90 68 0.0 0.0 0.00 0.01 0.00 78 1005.9
20260905175617 90 68 0.0 0.0 0.00 0.01 0.00 78 1005.9
20260905175515 90 30 0.0 0.0 0.00 0.01 0.00 78 1005.9
20260905175416 90 21 0.0 0.0 0.00 0.01 0.00 78 1005.9
20260905175317 90 107 0.0 0.0 0.00 0.01 0.00 78 1005.9
20260905175215 89 114 0.0 0.0 0.00 0.01 0.00 78 1006.0
20260905175118 89 114 0.0 0.0 0.00 0.01 0.00 78 1006.0
20260905175017 89 114 0.0 0.0 0.00 0.01 0.00 79 1006.0
20260905174916 89 114 0.0 0.0 0.00 0.01 0.00 79 1006.0
20260905174816 89 114 0.0 0.0 0.00 0.01 0.00 79 1006.0
20260905174716 89 114 0.0 0.0 0.00 0.01 0.00 78 1006.1
20260905174617 89 114 0.0 0.0 0.00 0.01 0.00 78 1006.0
20260905174516 89 114 0.0 0.0 0.00 0.01 0.00 78 1006.1
20260905174415 89 223 0.0 0.0 0.00 0.01 0.00 78 1006.1
20260905174315 89 226 0.0 0.0 0.00 0.01 0.00 79 1006.2
20260905174217 89 226 0.0 0.0 0.00 0.01 0.00 79 1006.1
20260905174116 89 226 0.0 0.0 0.00 0.01 0.00 79 1006.1
20260905174016 89 226 0.0 0.0 0.00 0.01 0.00 79 1006.2
20260905173918 89 226 0.0 0.0 0.00 0.01 0.00 79 1006.1
20260905173817 89 226 0.0 0.0 0.00 0.01 0.00 79 1006.2
20260905173716 89 226 0.0 0.0 0.00 0.01 0.00 79 1006.1
20260905173616 89 226 0.0 0.0 0.00 0.01 0.00 79 1006.1
20260905173515 89 226 0.0 0.0 0.00 0.01 0.00 79 1006.2
20260905173418 89 137 0.0 0.0 0.00 0.01 0.00 79 1006.2
20260905173316 89 137 0.0 0.0 0.00 0.01 0.00 79 1006.2
20260905173215 89 135 0.0 0.0 0.00 0.01 0.00 80 1006.2
20260905173115 89 135 0.0 0.0 0.00 0.01 0.00 80 1006.2
20260905173016 88 135 0.0 0.0 0.00 0.01 0.00 80 1006.2
20260905172917 88 135 0.0 0.0 0.00 0.01 0.00 81 1006.2
20260905172817 88 135 0.0 0.0 0.00 0.01 0.00 81 1006.3
20260905172716 88 135 0.0 0.0 0.00 0.01 0.00 81 1006.2
20260905172615 88 135 0.0 0.0 0.00 0.01 0.00 81 1006.3
20260905172515 88 137 0.0 0.0 0.00 0.01 0.00 81 1006.3
20260905172416 88 137 0.0 0.0 0.00 0.01 0.00 81 1006.3
20260905172314 88 134 0.0 0.0 0.00 0.01 0.00 81 1006.3
20260905172215 88 134 0.0 0.0 0.00 0.01 0.00 81 1006.3
20260905172115 88 140 0.0 0.0 0.00 0.01 0.00 81 1006.3
20260905172014 88 140 0.0 0.0 0.00 0.01 0.00 81 1006.2
20260905171915 88 140 0.0 0.0 0.00 0.01 0.00 81 1006.3
20260905171814 88 140 0.0 0.0 0.00 0.01 0.00 83 1006.3
20260905171715 88 140 0.0 0.0 0.00 0.01 0.00 83 1006.4
20260905171616 87 140 0.0 0.0 0.00 0.01 0.00 83 1006.4
20260905171516 87 140 0.0 0.0 0.00 0.01 0.00 84 1006.4
20260905171415 87 140 0.0 0.0 0.00 0.01 0.00 84 1006.4
20260905171316 87 140 0.0 0.0 0.00 0.01 0.00 84 1006.4
20260905171217 87 140 0.0 0.0 0.00 0.01 0.00 84 1006.4
20260905171117 87 140 0.0 0.0 0.00 0.01 0.00 84 1006.4
20260905171015 87 140 0.0 0.0 0.00 0.01 0.00 84 1006.4
20260905170916 87 140 0.0 0.0 0.00 0.01 0.00 84 1006.4
20260905170816 87 140 0.0 0.0 0.00 0.01 0.00 84 1006.4
20260905170715 87 140 0.0 0.0 0.00 0.02 0.00 84 1006.5
20260905170618 87 140 0.0 0.0 0.00 0.02 0.00 84 1006.4
20260905170514 87 140 0.0 0.0 0.00 0.03 0.00 84 1006.5
20260905170416 87 140 0.0 0.0 0.00 0.03 0.00 84 1006.5
20260905170317 87 140 0.0 0.0 0.00 0.03 0.00 84 1006.4
20260905170216 87 140 0.0 0.0 0.00 0.04 0.00 84 1006.4
20260905170115 87 140 0.0 0.0 0.00 0.04 0.00 84 1006.4
20260905170017 87 140 0.0 0.0 0.00 0.04 0.00 84 1006.4
20260905165916 87 140 0.0 0.0 0.00 0.04 0.00 84 1006.4
20260905165814 87 140 0.0 0.0 0.00 0.04 0.00 85 1006.4
20260905165716 87 140 0.0 0.0 0.00 0.04 0.00 85 1006.4
20260905165615 87 140 0.0 0.0 0.00 0.04 0.00 85 1006.5
20260905165514 87 140 0.0 0.0 0.00 0.04 0.00 85 1006.4
20260905165415 87 140 0.0 0.0 0.00 0.05 0.00 85 1006.4
20260905165315 87 140 0.0 0.0 0.00 0.05 0.00 85 1006.5
20260905165214 87 140 0.0 0.0 0.00 0.05 0.00 85 1006.5
20260905165116 87 140 0.0 0.0 0.00 0.05 0.00 85 1006.5
20260905165016 87 140 0.0 0.0 0.00 0.05 0.00 85 1006.6
20260905164914 87 140 0.0 0.0 0.00 0.05 0.00 85 1006.6
20260905164814 87 140 0.0 0.0 0.00 0.05 0.00 85 1006.6
20260905164716 87 140 0.0 0.0 0.00 0.06 0.00 85 1006.6
20260905164615 86 140 0.0 0.0 0.00 0.06 0.00 85 1006.6
20260905164515 86 140 0.0 0.0 0.00 0.06 0.00 85 1006.5
20260905164413 86 140 0.0 0.0 0.00 0.06 0.00 85 1006.6
20260905164314 86 140 0.0 0.0 0.00 0.06 0.00 85 1006.6
20260905164214 86 140 0.0 0.0 0.00 0.07 0.00 85 1006.5
20260905164113 86 140 0.0 0.0 0.00 0.07 0.00 85 1006.5
20260905164015 86 140 0.0 0.0 0.00 0.07 0.00 85 1006.5
20260905163915 86 140 0.0 0.0 0.00 0.07 0.00 85 1006.6
20260905163814 86 140 0.0 0.0 0.00 0.07 0.00 85 1006.6
20260905163715 86 140 0.0 0.0 0.00 0.07 0.00 85 1006.6
20260905163611 86 140 0.0 0.0 0.00 0.07 0.00 85 1006.5
20260905163510 86 140 0.0 0.0 0.00 0.07 0.00 85 1006.6
20260905163402 86 140 0.0 0.0 0.00 0.07 0.00 85 1006.6
20260905163304 86 140 0.0 0.0 0.00 0.07 0.00 85 1006.6
20260905163202 86 140 0.0 0.0 0.00 0.07 0.00 85 1006.5
20260905163104 86 140 0.0 0.0 0.00 0.07 0.00 85 1006.6
20260905163004 86 140 0.0 0.0 0.00 0.07 0.00 85 1006.6
20260905162905 86 140 0.0 0.0 0.00 0.07 0.00 85 1006.6
20260905162804 86 140 0.0 0.0 0.00 0.07 0.00 85 1006.5
20260905162702 86 140 0.0 0.0 0.00 0.07 0.00 85 1006.5
20260905162602 86 140 0.0 0.0 0.00 0.07 0.00 85 1006.6
20260905162502 86 140 0.0 0.0 0.00 0.07 0.00 86 1006.6
20260905162405 86 140 0.0 0.0 0.00 0.07 0.00 86 1006.6
20260905162305 86 140 0.0 0.0 0.00 0.07 0.00 86 1006.6
20260905162202 85 140 0.0 0.0 0.00 0.07 0.00 86 1006.6
20260905162102 85 140 0.0 0.0 0.00 0.07 0.00 89 1006.5
20260905162002 85 140 0.0 0.0 0.00 0.07 0.00 91 1006.5
20260905161853 85 140 0.0 0.0 0.00 0.07 0.00 91 1006.6
20260905161750 85 140 0.0 0.0 0.00 0.07 0.00 91 1006.6
20260905161641 85 140 0.0 0.0 0.00 0.07 0.00 91 1006.6
20260905161541 85 140 0.0 0.0 0.00 0.07 0.00 91 1006.6
20260905161440 85 140 0.0 0.0 0.00 0.07 0.00 91 1006.6
20260905161337 85 140 0.0 0.0 0.00 0.07 0.00 91 1006.6
20260905161233 85 140 0.0 0.0 0.00 0.07 0.00 92 1006.6
20260905161131 85 140 0.0 0.0 0.00 0.07 0.00 92 1006.6
20260905161032 85 140 0.0 0.0 0.00 0.07 0.00 92 1006.5
20260905160932 85 140 0.0 0.0 0.00 0.07 0.00 92 1006.6
20260905160821 85 140 0.0 0.0 0.00 0.07 0.00 92 1006.6
20260905160713 85 140 0.0 0.0 0.00 0.07 0.00 93 1006.6
20260905160614 85 140 0.0 0.0 0.00 0.07 0.00 93 1006.5
20260905160514 85 140 0.0 0.0 0.00 0.07 0.00 93 1006.5
20260905160414 85 140 0.0 0.0 0.00 0.07 0.00 93 1006.5
20260905160313 85 140 0.0 0.0 0.00 0.07 0.00 93 1006.5
20260905160217 85 140 0.0 0.0 0.00 0.07 0.00 94 1006.5
20260905160115 85 140 0.0 0.0 0.00 0.07 0.00 94 1006.5
20260905160013 85 140 0.0 0.0 0.00 0.07 0.00 95 1006.5
20260905155913 85 140 0.0 0.0 0.00 0.07 0.00 95 1006.5
20260905155813 85 140 0.0 0.0 0.00 0.07 0.00 95 1006.5
20260905155713 85 140 0.0 0.0 0.00 0.07 0.00 95 1006.5
20260905155613 85 140 0.0 0.0 0.00 0.07 0.00 95 1006.5
20260905155513 85 140 0.0 0.0 0.00 0.07 0.00 95 1006.5
20260905155413 85 140 0.0 0.0 0.00 0.07 0.00 95 1006.5
20260905155313 85 140 0.0 0.0 0.00 0.07 0.00 95 1006.5
20260905155215 85 140 0.0 0.0 0.00 0.07 0.00 95 1006.5
20260905155113 85 140 0.0 0.0 0.00 0.07 0.00 95 1006.5
20260905155013 84 140 0.0 0.0 0.00 0.07 0.00 96 1006.5
20260905154914 84 140 0.0 0.0 0.00 0.07 0.00 96 1006.5
20260905154814 84 140 0.0 0.0 0.00 0.07 0.00 96 1006.5
20260905154714 84 140 0.0 0.0 0.00 0.07 0.00 96 1006.6
20260905154614 84 140 0.0 0.0 0.00 0.07 0.00 96 1006.5
20260905154514 84 140 0.0 0.0 0.00 0.07 0.00 96 1006.6
20260905154407 84 140 0.0 0.0 0.00 0.07 0.00 96 1006.6
20260905154305 84 140 0.0 0.0 0.00 0.07 0.00 96 1006.6
20260905154202 84 140 0.0 0.0 0.00 0.07 0.00 97 1006.6
20260905154104 84 140 0.0 0.0 0.00 0.07 0.00 97 1006.6
20260905154003 84 140 0.0 0.0 0.00 0.07 0.00 97 1006.5
20260905153904 84 140 0.0 0.0 0.00 0.07 0.00 97 1006.5
20260905153803 84 140 0.0 0.0 0.00 0.07 0.00 97 1006.5
20260905153704 84 140 0.0 0.0 0.00 0.07 0.00 97 1006.6
20260905153604 83 140 0.0 0.0 0.00 0.07 0.00 97 1006.6
20260905153506 83 140 0.0 0.0 0.00 0.07 0.00 97 1006.6
20260905153402 83 140 0.0 0.0 0.00 0.07 0.00 97 1006.5
20260905153302 83 140 0.0 0.0 0.00 0.07 0.00 97 1006.6
20260905153205 83 140 0.0 0.0 0.00 0.07 0.00 97 1006.6
20260905153106 83 140 0.0 0.0 0.00 0.07 0.00 97 1006.6
20260905153002 83 140 0.0 0.0 0.00 0.07 0.00 97 1006.6
20260905152904 83 140 0.0 0.0 0.00 0.07 0.00 97 1006.5
20260905152804 83 140 0.0 0.0 0.00 0.07 0.00 98 1006.6
20260905152703 83 140 0.0 0.0 0.00 0.07 0.00 98 1006.5
20260905152605 83 140 0.0 0.0 0.00 0.07 0.00 98 1006.5
20260905152503 83 140 0.0 0.0 0.00 0.07 0.00 98 1006.5
20260905152402 83 140 0.0 0.0 0.00 0.07 0.00 98 1006.5
20260905152306 83 140 0.0 0.0 0.00 0.07 0.00 99 1006.6
20260905152205 83 140 0.0 0.0 0.00 0.07 0.00 99 1006.6
20260905152103 82 140 0.0 0.0 0.00 0.07 0.00 99 1006.6
20260905152005 82 140 0.0 0.0 0.00 0.07 0.00 99 1006.6
20260905151903 82 140 0.0 0.0 0.00 0.07 0.00 99 1006.6
20260905151804 82 140 0.0 0.0 0.00 0.07 0.00 99 1006.6
20260905151703 82 140 0.0 0.0 0.00 0.07 0.00 99 1006.6
20260905151604 82 137 0.0 0.0 0.00 0.07 0.00 99 1006.6
20260905151505 82 137 0.0 0.0 0.00 0.07 0.00 100 1006.6
20260905151406 82 138 0.0 0.0 0.00 0.07 0.00 100 1006.6
20260905151305 82 247 0.0 0.0 0.00 0.07 0.00 100 1006.7
20260905151204 82 247 0.0 0.0 0.00 0.07 0.00 100 1006.7
20260905151106 82 248 0.0 0.0 0.00 0.07 0.00 100 1006.7
20260905150958 82 250 0.0 0.0 0.00 0.07 0.00 100 1006.7
20260905150845 82 247 0.0 0.0 0.00 0.07 0.00 100 1006.6
20260905150732 82 145 0.0 0.0 0.00 0.07 0.00 100 1006.6
20260905150632 82 141 0.0 0.0 0.00 0.07 0.00 100 1006.5
20260905150531 82 141 0.0 0.0 0.00 0.07 0.00 100 1006.5
20260905150433 82 141 0.0 0.0 0.00 0.07 0.00 100 1006.5
20260905150333 82 179 0.0 0.0 0.00 0.07 0.00 100 1006.5
20260905150232 81 131 0.0 0.0 0.00 0.07 0.00 100 1006.5
20260905150133 81 131 0.0 0.0 0.00 0.07 0.00 100 1006.5
20260905150015 81 131 0.0 0.0 0.00 0.07 0.00 100 1006.5
20260905145913 81 131 0.0 0.0 0.00 0.07 0.00 100 1006.5
20260905145811 81 131 0.0 0.0 0.00 0.07 0.00 100 1006.4
20260905145711 81 179 0.0 0.0 0.00 0.07 0.00 100 1006.5
20260905145614 81 196 0.0 0.0 0.00 0.07 0.00 100 1006.5
20260905145512 81 197 0.0 0.0 0.00 0.07 0.00 100 1006.4
20260905145411 81 197 0.0 0.0 0.00 0.07 0.00 100 1006.4
20260905145313 81 197 0.0 0.0 0.00 0.07 0.00 100 1006.4
20260905145212 81 197 0.0 0.0 0.00 0.07 0.00 100 1006.5
20260905145114 81 118 0.0 0.0 0.00 0.07 0.00 100 1006.4
20260905145013 81 118 0.0 0.0 0.00 0.07 0.00 100 1006.5
20260905144914 81 118 0.0 0.0 0.00 0.07 0.00 100 1006.4
20260905144813 81 117 0.0 0.0 0.00 0.07 0.00 100 1006.4
20260905144711 81 116 0.0 0.0 0.00 0.07 0.00 100 1006.4
20260905144611 81 116 0.0 0.0 0.00 0.07 0.00 100 1006.4
20260905144512 81 116 0.0 0.0 0.00 0.07 0.00 100 1006.4
20260905144412 81 116 0.0 0.0 0.00 0.07 0.00 100 1006.4
20260905144313 81 116 0.0 0.0 0.00 0.07 0.00 100 1006.4
20260905144214 81 116 0.0 0.0 0.00 0.07 0.00 100 1006.4
20260905144114 81 116 0.0 0.0 0.00 0.07 0.00 100 1006.4
20260905144012 81 116 0.0 0.0 0.00 0.07 0.00 100 1006.5
20260905143913 81 116 0.0 0.0 0.00 0.07 0.00 100 1006.5
20260905143810 80 116 0.0 0.0 0.00 0.07 0.00 100 1006.4
20260905143711 80 116 0.0 0.0 0.00 0.07 0.00 100 1006.4
20260905143612 80 116 0.0 0.0 0.00 0.07 0.00 100 1006.4
20260905143511 80 116 0.0 0.0 0.00 0.07 0.00 100 1006.4
20260905143411 80 116 0.0 0.0 0.00 0.07 0.00 100 1006.5
20260905143314 80 116 0.0 0.0 0.00 0.07 0.00 100 1006.5
20260905143211 80 114 0.0 0.0 0.00 0.07 0.00 100 1006.4
20260905143112 80 114 0.0 0.0 0.00 0.07 0.00 100 1006.5
20260905143012 80 114 0.0 0.0 0.00 0.07 0.00 100 1006.4
20260905142911 80 114 0.0 0.0 0.00 0.07 0.00 100 1006.4
20260905142811 79 113 0.0 0.0 0.00 0.07 0.00 100 1006.4
20260905142712 79 113 0.0 0.0 0.00 0.07 0.00 100 1006.4
20260905142610 79 113 0.0 0.0 0.00 0.07 0.00 100 1006.4
20260905142510 79 113 0.0 0.0 0.00 0.07 0.00 100 1006.5
20260905142415 79 111 0.0 0.0 0.00 0.07 0.00 100 1006.5
20260905142311 79 111 0.0 0.0 0.00 0.07 0.00 100 1006.5
20260905142211 79 111 0.0 0.0 0.00 0.07 0.00 100 1006.5
20260905142112 79 111 0.0 0.0 0.00 0.07 0.00 100 1006.5
20260905142011 79 111 0.0 0.0 0.00 0.07 0.00 100 1006.5
20260905141911 78 111 0.0 0.0 0.00 0.07 0.00 100 1006.5
20260905141811 78 111 0.0 0.0 0.00 0.07 0.00 100 1006.4
20260905141712 78 111 0.0 0.0 0.00 0.07 0.00 100 1006.5
20260905141611 78 111 0.0 0.0 0.00 0.07 0.00 100 1006.5
20260905141513 78 111 0.0 0.0 0.00 0.07 0.00 100 1006.5
20260905141411 78 111 0.0 0.0 0.00 0.07 0.00 100 1006.5
20260905141313 78 111 0.0 0.0 0.00 0.07 0.00 100 1006.5
20260905141211 78 111 0.0 0.0 0.00 0.07 0.00 100 1006.5
20260905141112 77 113 0.0 0.0 0.00 0.07 0.00 100 1006.5
20260905141013 77 113 0.0 0.0 0.00 0.07 0.00 100 1006.4
20260905140912 77 113 0.0 0.0 0.00 0.07 0.00 100 1006.4
20260905140811 77 113 0.0 0.0 0.00 0.07 0.00 100 1006.4
20260905140710 77 113 0.0 0.0 0.00 0.07 0.00 100 1006.4
20260905140613 77 113 0.0 0.0 0.00 0.07 0.00 100 1006.4
20260905140511 77 113 0.0 0.0 0.00 0.07 0.00 100 1006.5
20260905140411 77 113 0.0 0.0 0.00 0.07 0.00 100 1006.4
20260905140312 77 113 0.0 0.0 0.00 0.07 0.00 100 1006.4
20260905140213 76 113 0.0 0.0 0.00 0.07 0.00 100 1006.4
20260905140111 76 113 0.0 0.0 0.00 0.07 0.00 100 1006.4
20260905140011 76 113 0.0 0.0 0.00 0.07 0.00 100 1006.4
20260905135912 76 113 0.0 0.0 0.00 0.07 0.00 100 1006.4
20260905135813 76 113 0.0 0.0 0.00 0.07 0.00 100 1006.4
20260905135706 76 113 0.0 0.0 0.00 0.07 0.00 100 1006.4
20260905135604 76 113 0.0 0.0 0.00 0.07 0.00 100 1006.3
20260905135508 76 113 0.0 0.0 0.00 0.07 0.00 100 1006.4
20260905135403 76 113 0.0 0.0 0.00 0.07 0.00 100 1006.3
20260905135306 75 113 0.0 0.0 0.00 0.07 0.00 100 1006.4
20260905135202 75 113 0.0 0.0 0.00 0.07 0.00 100 1006.4
20260905135103 75 113 0.0 0.0 0.00 0.07 0.00 100 1006.3
20260905135004 75 113 0.0 0.0 0.00 0.07 0.00 100 1006.4
20260905134904 75 113 0.0 0.0 0.00 0.07 0.00 100 1006.3
20260905134803 75 113 0.0 0.0 0.00 0.07 0.00 100 1006.4
20260905134704 75 113 0.0 0.0 0.00 0.07 0.00 100 1006.3
20260905134602 75 113 0.0 0.0 0.00 0.07 0.00 100 1006.3
20260905134503 75 113 0.0 0.0 0.00 0.07 0.00 100 1006.3
20260905134402 75 113 0.0 0.0 0.00 0.07 0.00 100 1006.3
20260905134302 75 113 0.0 0.0 0.00 0.07 0.00 100 1006.3
20260905134203 74 113 0.0 0.0 0.00 0.07 0.00 100 1006.3
20260905134105 74 113 0.0 0.0 0.00 0.07 0.00 100 1006.3
20260905134002 74 113 0.0 0.0 0.00 0.07 0.00 100 1006.3
20260905133903 74 113 0.0 0.0 0.00 0.07 0.00 100 1006.3
20260905133803 74 113 0.0 0.0 0.00 0.07 0.00 100 1006.3
20260905133703 74 113 0.0 0.0 0.00 0.07 0.00 100 1006.4
20260905133604 74 113 0.0 0.0 0.00 0.07 0.00 100 1006.3
20260905133506 74 113 0.0 0.0 0.00 0.07 0.00 100 1006.3
20260905133404 74 113 0.0 0.0 0.00 0.07 0.00 100 1006.3
20260905133300 74 113 0.0 0.0 0.00 0.07 0.00 100 1006.3
20260905133158 74 113 0.0 0.0 0.00 0.07 0.00 100 1006.3
20260905133053 74 113 0.0 0.0 0.00 0.07 0.00 100 1006.3
20260905132949 74 113 0.0 0.0 0.00 0.07 0.00 100 1006.3
20260905132841 74 113 0.0 0.0 0.00 0.07 0.00 100 1006.3
20260905132740 74 113 0.0 0.0 0.00 0.07 0.00 100 1006.3
20260905132632 74 113 0.0 0.0 0.00 0.07 0.00 100 1006.3
20260905132531 74 113 0.0 0.0 0.00 0.07 0.00 100 1006.3
20260905132432 74 113 0.0 0.0 0.00 0.07 0.00 100 1006.2
20260905132335 74 113 0.0 0.0 0.00 0.07 0.00 100 1006.2
20260905132231 74 113 0.0 0.0 0.00 0.07 0.00 100 1006.3
20260905132132 74 113 0.0 0.0 0.00 0.07 0.00 100 1006.3
20260905132031 74 113 0.0 0.0 0.00 0.07 0.00 100 1006.2
20260905131931 74 113 0.0 0.0 0.00 0.07 0.00 100 1006.3
20260905131834 74 113 0.0 0.0 0.00 0.07 0.00 100 1006.3
20260905131732 74 113 0.0 0.0 0.00 0.07 0.00 100 1006.3
20260905131631 73 113 0.0 0.0 0.00 0.07 0.00 100 1006.2
20260905131532 73 113 0.0 0.0 0.00 0.07 0.00 100 1006.3
20260905131432 73 113 0.0 0.0 0.00 0.07 0.00 100 1006.3
20260905131332 73 113 0.0 0.0 0.00 0.07 0.00 100 1006.3
20260905131232 73 113 0.0 0.0 0.00 0.07 0.00 100 1006.2
20260905131132 73 113 0.0 0.0 0.00 0.07 0.00 100 1006.2
20260905131031 73 113 0.0 0.0 0.00 0.07 0.00 100 1006.2
20260905130932 73 113 0.0 0.0 0.00 0.07 0.00 100 1006.2
20260905130832 73 113 0.0 0.0 0.00 0.07 0.00 100 1006.2
20260905130733 73 113 0.0 0.0 0.00 0.07 0.00 100 1006.2
20260905130631 73 113 0.0 0.0 0.00 0.07 0.00 100 1006.2
20260905130533 73 113 0.0 0.0 0.00 0.07 0.00 100 1006.1
20260905130425 73 113 0.0 0.0 0.00 0.07 0.00 100 1006.2
20260905130321 73 113 0.0 0.0 0.00 0.07 0.00 100 1006.2
20260905130219 73 113 0.0 0.0 0.00 0.07 0.00 100 1006.2
20260905130113 73 113 0.0 0.0 0.00 0.07 0.00 100 1006.2
20260905130014 73 113 0.0 0.0 0.00 0.07 0.00 100 1006.2
20260905125910 73 113 0.0 0.0 0.00 0.07 0.00 100 1006.2
20260905125809 73 113 0.0 0.0 0.00 0.07 0.00 100 1006.2
20260905125708 73 113 0.0 0.0 0.00 0.07 0.00 100 1006.1
20260905125612 73 113 0.0 0.0 0.00 0.07 0.00 100 1006.1
20260905125509 73 113 0.0 0.0 0.00 0.07 0.00 100 1006.1
20260905125412 73 113 0.0 0.0 0.00 0.07 0.00 100 1006.1
20260905125308 73 113 0.0 0.0 0.00 0.07 0.00 100 1006.1
20260905125209 73 113 0.0 0.0 0.00 0.07 0.00 100 1006.1
20260905125109 73 113 0.0 0.0 0.00 0.07 0.00 100 1006.0
20260905125009 73 113 0.0 0.0 0.00 0.07 0.00 100 1006.1
20260905124910 73 113 0.0 0.0 0.00 0.07 0.00 100 1006.0
20260905124809 73 113 0.0 0.0 0.00 0.07 0.00 100 1006.1
20260905124709 73 113 0.0 0.0 0.00 0.07 0.00 100 1006.1
20260905124611 73 113 0.0 0.0 0.00 0.07 0.00 100 1006.1
20260905124510 0 0.0 0.0 0.00 0.07 0.00 1006.1
20260905124407 0 0.0 0.0 0.00 0.07 0.00 1006.1
20260905124304 0 0.0 0.0 0.00 0.07 0.00 1006.1
20260905124203 0 0.0 0.0 0.00 0.07 0.00 1006.0
20260905124104 0 0.0 0.0 0.00 0.07 0.00 1006.1
20260905124004 0 0.0 0.0 0.00 0.07 0.00 1006.1
20260905123905 0 0.0 0.0 0.00 0.07 0.00 1006.0
20260905123804 0 0.0 0.0 0.00 0.07 0.00 1006.0
20260905123704 0 0.0 0.0 0.00 0.07 0.00 1005.9
20260905123603 0 0.0 0.0 0.00 0.07 0.00 1006.0
20260905123506 0 0.0 0.0 0.00 0.07 0.00 1005.9
20260905123404 0 0.0 0.0 0.00 0.07 0.00 1005.9
20260905123304 0 0.0 0.0 0.00 0.07 0.00 1005.9
20260905123204 0 0.0 0.0 0.00 0.07 0.00 1005.8
20260905123104 0 0.0 0.0 0.00 0.07 0.00 1005.8
20260905123005 0 0.0 0.0 0.00 0.07 0.00 1005.9
20260905122904 0 0.0 0.0 0.00 0.07 0.00 1005.8
20260905122803 0 0.0 0.0 0.00 0.07 0.00 1005.8
20260905122704 0 0.0 0.0 0.00 0.07 0.00 1005.8
20260905122602 0 0.0 0.0 0.00 0.07 0.00 1005.8
20260905122503 0 113 0.0 0.0 0.00 0.07 0.00 1005.8
20260905122402 73 113 0.0 0.0 0.00 0.07 0.00 100 1005.8
20260905122306 73 113 0.0 0.0 0.00 0.07 0.00 100 1005.7
20260905122203 73 113 0.0 0.0 0.00 0.07 0.00 100 1005.7
20260905122101 73 113 0.0 0.0 0.00 0.07 0.00 100 1005.8
20260905122002 73 113 0.0 0.0 0.00 0.07 0.00 100 1005.7
20260905121900 73 113 0.0 0.0 0.00 0.07 0.00 100 1005.7
20260905121800 73 113 0.0 0.0 0.00 0.07 0.00 100 1005.7
20260905121700 73 113 0.0 0.0 0.00 0.07 0.00 100 1005.7
20260905121602 73 113 0.0 0.0 0.00 0.07 0.00 100 1005.6
20260905121459 73 113 0.0 0.0 0.00 0.07 0.00 100 1005.6
20260905121359 73 113 0.0 0.0 0.00 0.07 0.00 100 1005.6
20260905121300 73 113 0.0 0.0 0.00 0.07 0.00 100 1005.5
20260905121158 73 113 0.0 0.0 0.00 0.07 0.00 100 1005.6
20260905121101 73 113 0.0 0.0 0.00 0.07 0.00 100 1005.5
20260905120958 73 113 0.0 0.0 0.00 0.07 0.00 100 1005.5
20260905120858 73 113 0.0 0.0 0.00 0.07 0.00 100 1005.5
20260905120759 73 113 0.0 0.0 0.00 0.07 0.00 100 1005.6
20260905120703 73 113 0.0 0.0 0.00 0.07 0.00 100 1005.6
20260905120559 73 113 0.0 0.0 0.00 0.07 0.00 100 1005.5
20260905120502 73 113 0.0 0.0 0.00 0.07 0.00 100 1005.5
20260905120400 73 113 0.0 0.0 0.00 0.07 0.00 100 1005.5
20260905120258 73 113 0.0 0.0 0.00 0.07 0.00 100 1005.4
20260905120201 73 113 0.0 0.0 0.00 0.07 0.00 100 1005.4
20260905120100 73 113 0.0 0.0 0.00 0.07 0.00 100 1005.5
20260905115959 73 113 0.0 0.0 0.00 0.07 0.00 100 1005.4
20260905115901 73 113 0.0 0.0 0.00 0.07 0.00 100 1005.4
20260905115801 73 113 0.0 0.0 0.00 0.07 0.00 100 1005.4
20260905115659 73 113 0.0 0.0 0.00 0.07 0.00 100 1005.4
20260905115559 73 113 0.0 0.0 0.00 0.07 0.00 100 1005.4
20260905115458 73 113 0.0 0.0 0.00 0.07 0.00 100 1005.4
20260905115359 73 113 0.0 0.0 0.00 0.07 0.00 100 1005.4
20260905115301 73 113 0.0 0.0 0.00 0.07 0.00 100 1005.4
20260905115159 73 113 0.0 0.0 0.00 0.07 0.00 100 1005.3
20260905115058 73 113 0.0 0.0 0.00 0.07 0.00 100 1005.4
20260905115001 73 113 0.0 0.0 0.00 0.07 0.00 100 1005.4
20260905114902 73 113 0.0 0.0 0.00 0.07 0.00 100 1005.4
20260905114758 73 113 0.0 0.0 0.00 0.07 0.00 100 1005.5
20260905114658 73 113 0.0 0.0 0.00 0.07 0.00 100 1005.4
20260905114558 73 113 0.0 0.0 0.00 0.07 0.00 100 1005.4
20260905114459 73 113 0.0 0.0 0.00 0.07 0.00 100 1005.4
20260905114359 73 113 0.0 0.0 0.00 0.07 0.00 100 1005.4
20260905114259 73 113 0.0 0.0 0.00 0.07 0.00 100 1005.4
20260905114157 73 113 0.0 0.0 0.00 0.07 0.00 100 1005.5
20260905114058 73 113 0.0 0.0 0.00 0.07 0.00 100 1005.5
20260905113959 73 113 0.0 0.0 0.00 0.07 0.00 100 1005.5
20260905113900 73 113 0.0 0.0 0.00 0.07 0.00 100 1005.5
20260905113759 73 113 0.0 0.0 0.00 0.07 0.00 100 1005.4
20260905113658 73 113 0.0 0.0 0.00 0.07 0.00 100 1005.4
20260905113557 73 113 0.0 0.0 0.00 0.07 0.00 100 1005.4
20260905113459 73 113 0.0 0.0 0.00 0.07 0.00 100 1005.5
20260905113357 73 113 0.0 0.0 0.00 0.07 0.00 100 1005.4
20260905113300 73 113 0.0 0.0 0.00 0.07 0.00 100 1005.4
20260905113158 73 113 0.0 0.0 0.00 0.07 0.00 100 1005.4
20260905113101 73 113 0.0 0.0 0.00 0.07 0.00 100 1005.3
20260905112958 73 113 0.0 0.0 0.00 0.07 0.00 100 1005.3
20260905112858 73 113 0.0 0.0 0.00 0.07 0.00 100 1005.4
20260905112758 73 113 0.0 0.0 0.00 0.07 0.00 100 1005.4
20260905112657 73 113 0.0 0.0 0.00 0.07 0.00 100 1005.3
20260905112558 73 113 0.0 0.0 0.00 0.07 0.00 100 1005.3
20260905112457 73 113 0.0 0.0 0.00 0.07 0.00 100 1005.3
20260905112357 73 113 0.0 0.0 0.00 0.07 0.00 100 1005.3
20260905112258 73 113 0.0 0.0 0.00 0.07 0.00 100 1005.2
20260905112159 73 113 0.0 0.0 0.00 0.07 0.00 100 1005.2
20260905112058 73 113 0.0 0.0 0.00 0.07 0.00 100 1005.2
20260905111957 73 113 0.0 0.0 0.00 0.07 0.00 100 1005.2
20260905111858 73 113 0.0 0.0 0.00 0.07 0.00 100 1005.2
20260905111758 73 113 0.0 0.0 0.00 0.07 0.00 100 1005.1
20260905111657 73 113 0.0 0.0 0.00 0.07 0.00 100 1005.2
20260905111558 73 113 0.0 0.0 0.00 0.07 0.00 100 1005.1
20260905111458 73 113 0.0 0.0 0.00 0.07 0.00 100 1005.1
20260905111400 73 113 0.0 0.0 0.00 0.07 0.00 100 1005.1
20260905111259 73 113 0.0 0.0 0.00 0.07 0.00 100 1005.1
20260905111200 73 113 0.0 0.0 0.00 0.07 0.00 100 1005.1
20260905111057 73 113 0.0 0.0 0.00 0.07 0.00 100 1005.0
20260905110958 73 113 0.0 0.0 0.00 0.07 0.00 100 1005.1
20260905110900 73 113 0.0 0.0 0.00 0.07 0.00 100 1005.0
20260905110755 73 113 0.0 0.0 0.00 0.07 0.00 100 1005.1
20260905110651 73 113 0.0 0.0 0.00 0.07 0.00 100 1005.1
20260905110546 73 113 0.0 0.0 0.00 0.07 0.00 100 1005.1
20260905110443 73 113 0.0 0.0 0.00 0.07 0.00 100 1005.1
20260905110339 73 113 0.0 0.0 0.00 0.07 0.00 100 1005.0
20260905110234 73 113 0.0 0.0 0.00 0.07 0.00 100 1005.0
20260905110132 73 113 0.0 0.0 0.00 0.07 0.00 100 1005.0
20260905110031 73 113 0.0 0.0 0.00 0.07 0.00 100 1005.0
20260905105933 73 113 0.0 0.0 0.00 0.07 0.00 100 1005.0
20260905105833 73 113 0.0 0.0 0.00 0.07 0.00 100 1004.9
20260905105732 73 113 0.0 0.0 0.00 0.07 0.00 100 1004.9
20260905105632 73 113 0.0 0.0 0.00 0.07 0.00 100 1005.0
20260905105522 73 113 0.0 0.0 0.00 0.07 0.00 100 1005.0
20260905105421 73 113 0.0 0.0 0.00 0.07 0.00 100 1005.0
20260905105316 74 113 0.0 0.0 0.00 0.07 0.00 100 1005.0
20260905105213 73 113 0.0 0.0 0.00 0.07 0.00 100 1004.9
20260905105110 74 113 0.0 0.0 0.00 0.07 0.00 100 1005.0
20260905105006 74 113 0.0 0.0 0.00 0.07 0.00 100 1005.0
20260905104905 74 113 0.0 0.0 0.00 0.07 0.00 100 1004.9
20260905104803 74 113 0.0 0.0 0.00 0.07 0.00 100 1004.9
20260905104704 74 113 0.0 0.0 0.00 0.07 0.00 100 1004.9
20260905104606 74 113 0.0 0.0 0.00 0.07 0.00 100 1005.0
20260905104506 74 113 0.0 0.0 0.00 0.07 0.00 100 1004.9
20260905104404 74 113 0.0 0.0 0.00 0.07 0.00 100 1005.0
20260905104301 74 113 0.0 0.0 0.00 0.07 0.00 100 1004.9
20260905104206 74 113 0.0 0.0 0.00 0.07 0.00 100 1004.9
20260905104103 74 113 0.0 0.0 0.00 0.07 0.00 100 1004.9
20260905104004 74 113 0.0 0.0 0.00 0.07 0.00 100 1004.9
20260905103904 74 113 0.0 0.0 0.00 0.07 0.00 100 1004.9
20260905103804 74 113 0.0 0.0 0.00 0.07 0.00 100 1004.9
20260905103704 74 113 0.0 0.0 0.00 0.07 0.00 100 1004.9
20260905103605 74 113 0.0 0.0 0.00 0.07 0.00 100 1004.9
20260905103506 74 113 0.0 0.0 0.00 0.07 0.00 100 1004.8
20260905103405 74 113 0.0 0.0 0.00 0.07 0.00 100 1004.9
20260905103304 74 113 0.0 0.0 0.00 0.07 0.00 100 1004.8
20260905103203 74 113 0.0 0.0 0.00 0.07 0.00 100 1004.9
20260905103104 74 113 0.0 0.0 0.00 0.07 0.00 100 1004.8
20260905103007 74 113 0.0 0.0 0.00 0.07 0.00 100 1004.9
20260905102905 74 113 0.0 0.0 0.00 0.07 0.00 100 1004.9
20260905102804 74 113 0.0 0.0 0.00 0.07 0.00 100 1004.8
20260905102703 74 113 0.0 0.0 0.00 0.07 0.00 100 1004.9
20260905102603 74 113 0.0 0.0 0.00 0.07 0.00 100 1004.8
20260905102504 74 113 0.0 0.0 0.00 0.07 0.00 100 1004.8
20260905102404 74 113 0.0 0.0 0.00 0.07 0.00 99 1004.8
20260905102306 74 113 0.0 0.0 0.00 0.07 0.00 99 1004.8
20260905102204 74 113 0.0 0.0 0.00 0.07 0.00 99 1004.8
20260905102104 74 113 0.0 0.0 0.00 0.07 0.00 99 1004.8
20260905102003 74 113 0.0 0.0 0.00 0.07 0.00 99 1004.8
20260905101903 74 113 0.0 0.0 0.00 0.07 0.00 99 1004.9
20260905101805 74 113 0.0 0.0 0.00 0.07 0.00 99 1004.8
20260905101703 74 113 0.0 0.0 0.00 0.07 0.00 99 1004.8
20260905101604 74 113 0.0 0.0 0.00 0.07 0.00 99 1004.8
20260905101504 74 113 0.0 0.0 0.00 0.07 0.00 99 1004.8
20260905101358 74 113 0.0 0.0 0.00 0.07 0.00 99 1004.8
20260905101256 74 113 0.0 0.0 0.00 0.07 0.00 99 1004.7
20260905101157 74 113 0.0 0.0 0.00 0.07 0.00 99 1004.8
20260905101058 74 113 0.0 0.0 0.00 0.07 0.00 99 1004.8
20260905100957 74 113 0.0 0.0 0.00 0.07 0.00 99 1004.8
20260905100855 74 113 0.0 0.0 0.00 0.07 0.00 99 1004.7
20260905100756 74 113 0.0 0.0 0.00 0.07 0.00 99 1004.8
20260905100656 74 113 0.0 0.0 0.00 0.07 0.00 100 1004.7
20260905100556 74 113 0.0 0.0 0.00 0.07 0.00 100 1004.8
20260905100456 74 113 0.0 0.0 0.00 0.07 0.00 100 1004.8
20260905100356 74 113 0.0 0.0 0.00 0.07 0.00 100 1004.7
20260905100255 74 113 0.0 0.0 0.00 0.07 0.00 100 1004.7
20260905100158 74 113 0.0 0.0 0.00 0.07 0.00 100 1004.7
20260905100057 74 113 0.0 0.0 0.00 0.07 0.00 100 1004.8
20260905095955 74 113 0.0 0.0 0.00 0.07 0.00 99 1004.8
20260905095855 74 113 0.0 0.0 0.00 0.07 0.00 99 1004.8
20260905095759 74 113 0.0 0.0 0.00 0.07 0.00 99 1004.8
20260905095656 74 113 0.0 0.0 0.00 0.07 0.00 99 1004.8
20260905095556 74 113 0.0 0.0 0.00 0.07 0.00 99 1004.7
20260905095455 74 113 0.0 0.0 0.00 0.07 0.00 99 1004.8
20260905095357 74 113 0.0 0.0 0.00 0.07 0.00 99 1004.8
20260905095256 74 113 0.0 0.0 0.00 0.07 0.00 99 1004.8
20260905095155 74 113 0.0 0.0 0.00 0.07 0.00 99 1004.8
20260905095056 74 113 0.0 0.0 0.00 0.07 0.00 99 1004.8
20260905094958 74 113 0.0 0.0 0.00 0.07 0.00 99 1004.8
20260905094859 74 113 0.0 0.0 0.00 0.07 0.00 99 1004.8
20260905094757 74 113 0.0 0.0 0.00 0.07 0.00 99 1004.9
20260905094655 74 113 0.0 0.0 0.00 0.07 0.00 99 1004.8
20260905094557 74 113 0.0 0.0 0.00 0.07 0.00 99 1004.8
20260905094459 74 113 0.0 0.0 0.00 0.07 0.00 99 1004.8
20260905094355 74 113 0.0 0.0 0.00 0.07 0.00 99 1004.8
20260905094257 74 113 0.0 0.0 0.00 0.07 0.00 99 1004.7
20260905094155 74 113 0.0 0.0 0.00 0.07 0.00 99 1004.7
20260905094054 74 113 0.0 0.0 0.00 0.07 0.00 99 1004.8
20260905093958 74 113 0.0 0.0 0.00 0.07 0.00 99 1004.8
20260905093856 74 113 0.0 0.0 0.00 0.07 0.00 99 1004.7
20260905093755 74 113 0.0 0.0 0.00 0.07 0.00 99 1004.7
20260905093657 74 113 0.0 0.0 0.00 0.07 0.00 99 1004.8
20260905093557 74 113 0.0 0.0 0.00 0.07 0.00 99 1004.7
20260905093455 74 113 0.0 0.0 0.00 0.07 0.00 99 1004.8
20260905093356 74 113 0.0 0.0 0.00 0.07 0.00 99 1004.8
20260905093256 74 113 0.0 0.0 0.00 0.07 0.00 99 1004.8
20260905093155 74 113 0.0 0.0 0.00 0.07 0.00 99 1004.8
20260905093058 74 113 0.0 0.0 0.00 0.07 0.00 99 1004.8
20260905092956 74 113 0.0 0.0 0.00 0.07 0.00 99 1004.8
20260905092856 74 113 0.0 0.0 0.00 0.07 0.00 99 1004.8
20260905092757 74 113 0.0 0.0 0.00 0.07 0.00 99 1004.8
20260905092657 74 113 0.0 0.0 0.00 0.07 0.00 99 1004.8
20260905092557 74 113 0.0 0.0 0.00 0.07 0.00 99 1004.8
20260905092454 74 113 0.0 0.0 0.00 0.07 0.00 99 1004.8
20260905092354 74 113 0.0 0.0 0.00 0.07 0.00 99 1004.8
20260905092255 74 113 0.0 0.0 0.00 0.07 0.00 99 1004.8
20260905092155 74 113 0.0 0.0 0.00 0.07 0.00 99 1004.9
20260905092054 74 113 0.0 0.0 0.00 0.07 0.00 99 1004.9
20260905091956 74 113 0.0 0.0 0.00 0.07 0.00 99 1004.9
20260905091855 74 113 0.0 0.0 0.00 0.07 0.00 99 1004.9
20260905091755 74 113 0.0 0.0 0.00 0.07 0.00 99 1005.0
20260905091654 74 113 0.0 0.0 0.00 0.07 0.00 99 1004.9
20260905091548 74 113 0.0 0.0 0.00 0.07 0.00 99 1004.9
20260905091447 74 113 0.0 0.0 0.00 0.07 0.00 99 1004.8
20260905091338 74 113 0.0 0.0 0.00 0.07 0.00 99 1004.9
20260905091231 74 113 0.0 0.0 0.00 0.07 0.00 99 1004.8
20260905091132 74 113 0.0 0.0 0.00 0.07 0.00 99 1004.9
20260905091030 74 113 0.0 0.0 0.00 0.07 0.00 99 1004.9
20260905090929 74 113 0.0 0.0 0.00 0.07 0.00 99 1004.9
20260905090828 74 113 0.0 0.0 0.00 0.07 0.00 99 1004.9
20260905090725 74 113 0.0 0.0 0.00 0.07 0.00 99 1004.8
20260905090624 74 113 0.0 0.0 0.00 0.07 0.00 99 1004.8
20260905090520 74 113 0.0 0.0 0.00 0.07 0.00 99 1004.9
20260905090418 74 113 0.0 0.0 0.00 0.07 0.00 99 1004.8
20260905090306 74 113 0.0 0.0 0.00 0.07 0.00 99 1004.9
20260905090203 74 113 0.0 0.0 0.00 0.07 0.00 99 1004.8
20260905090004 75 113 0.0 0.0 0.00 0.07 0.00 99 1004.9
20260905085904 75 113 0.0 0.0 0.00 0.07 0.00 99 1004.8
20260905085802 75 113 0.0 0.0 0.00 0.07 0.00 99 1004.8
20260905085703 75 113 0.0 0.0 0.00 0.07 0.00 99 1004.8
20260905085602 75 113 0.0 0.0 0.00 0.07 0.00 99 1004.8
20260905085504 75 113 0.0 0.0 0.00 0.07 0.00 99 1004.8
20260905085404 75 113 0.0 0.0 0.00 0.07 0.00 99 1004.9
20260905085305 75 113 0.0 0.0 0.00 0.07 0.00 99 1004.7
20260905085203 75 113 0.0 0.0 0.00 0.07 0.00 99 1004.7
20260905085105 75 113 0.0 0.0 0.00 0.07 0.00 99 1004.8
20260905085005 75 113 0.0 0.0 0.00 0.07 0.00 99 1004.7
20260905084903 75 113 0.0 0.0 0.00 0.07 0.00 99 1004.7
20260905084802 75 113 0.0 0.0 0.00 0.07 0.00 99 1004.6
20260905084706 75 113 0.0 0.0 0.00 0.07 0.00 99 1004.6
20260905084603 75 113 0.0 0.0 0.00 0.07 0.00 99 1004.6
20260905084506 75 113 0.0 0.0 0.00 0.07 0.00 99 1004.6
20260905084402 75 113 0.0 0.0 0.00 0.07 0.00 99 1004.6
20260905084304 75 113 0.0 0.0 0.00 0.07 0.00 99 1004.6
20260905084206 75 113 0.0 0.0 0.00 0.07 0.00 99 1004.6
20260905084104 75 113 0.0 0.0 0.00 0.07 0.00 99 1004.5
20260905084004 75 113 0.0 0.0 0.00 0.07 0.00 99 1004.6
20260905083902 75 113 0.0 0.0 0.00 0.07 0.00 99 1004.6
20260905083802 75 113 0.0 0.0 0.00 0.07 0.00 99 1004.6
20260905083700 75 113 0.0 0.0 0.00 0.07 0.00 99 1004.6
20260905083555 75 113 0.0 0.0 0.00 0.07 0.00 99 1004.7
20260905083454 75 113 0.0 0.0 0.00 0.07 0.00 99 1004.7
20260905083356 75 113 0.0 0.0 0.00 0.07 0.00 99 1004.7
20260905083254 75 113 0.0 0.0 0.00 0.07 0.00 99 1004.7
20260905083155 75 113 0.0 0.0 0.00 0.07 0.00 99 1004.7
20260905083053 75 113 0.0 0.0 0.00 0.07 0.00 99 1004.7
20260905082953 75 113 0.0 0.0 0.00 0.07 0.00 99 1004.7
20260905082854 75 113 0.0 0.0 0.00 0.07 0.00 99 1004.7
20260905082756 75 113 0.0 0.0 0.00 0.07 0.00 99 1004.7
20260905082654 75 113 0.0 0.0 0.00 0.07 0.00 99 1004.8
20260905082555 75 113 0.0 0.0 0.00 0.07 0.00 99 1004.7
20260905082453 75 113 0.0 0.0 0.00 0.07 0.00 99 1004.7
20260905082355 75 113 0.0 0.0 0.00 0.07 0.00 99 1004.7
20260905082253 75 113 0.0 0.0 0.00 0.07 0.00 99 1004.6
20260905082153 75 113 0.0 0.0 0.00 0.07 0.00 99 1004.7
20260905082053 75 113 0.0 0.0 0.00 0.07 0.00 99 1004.7
20260905081956 75 113 0.0 0.0 0.00 0.07 0.00 99 1004.6
20260905081854 75 113 0.0 0.0 0.00 0.07 0.00 99 1004.7
20260905081755 75 113 0.0 0.0 0.00 0.07 0.00 99 1004.7
20260905081653 75 113 0.0 0.0 0.00 0.07 0.00 99 1004.6
20260905081554 75 113 0.0 0.0 0.00 0.07 0.00 99 1004.7
20260905081455 75 113 0.0 0.0 0.00 0.07 0.00 99 1004.7
20260905081353 75 113 0.0 0.0 0.00 0.07 0.00 99 1004.7
20260905081253 75 113 0.0 0.0 0.00 0.07 0.00 99 1004.7
20260905081152 75 113 0.0 0.0 0.00 0.07 0.00 99 1004.7
20260905081054 75 113 0.0 0.0 0.00 0.07 0.00 99 1004.7
20260905080954 75 113 0.0 0.0 0.00 0.07 0.00 99 1004.6
20260905080853 75 113 0.0 0.0 0.00 0.07 0.00 99 1004.7
20260905080752 75 113 0.0 0.0 0.00 0.07 0.00 99 1004.6
20260905080656 75 113 0.0 0.0 0.00 0.07 0.00 99 1004.6
20260905080555 75 113 0.0 0.0 0.00 0.07 0.00 99 1004.7
20260905080453 75 113 0.0 0.0 0.00 0.07 0.00 99 1004.7
20260905080352 75 113 0.0 0.0 0.00 0.07 0.00 99 1004.7
20260905080252 75 113 0.0 0.0 0.00 0.07 0.00 99 1004.6
20260905080156 75 113 0.0 0.0 0.00 0.07 0.00 99 1004.6
20260905080054 75 113 0.0 0.0 0.00 0.07 0.00 99 1004.6
20260905075952 75 113 0.0 0.0 0.00 0.07 0.00 99 1004.6
20260905075853 75 113 0.0 0.0 0.00 0.07 0.00 99 1004.7
20260905075755 75 113 0.0 0.0 0.00 0.07 0.00 99 1004.7
20260905075654 75 113 0.0 0.0 0.00 0.07 0.00 99 1004.7
20260905075553 75 113 0.0 0.0 0.00 0.07 0.00 99 1004.7
20260905075454 75 113 0.0 0.0 0.00 0.07 0.00 99 1004.7
20260905075354 75 113 0.0 0.0 0.00 0.07 0.00 99 1004.7
20260905075255 75 113 0.0 0.0 0.00 0.07 0.00 99 1004.8
20260905075154 75 113 0.0 0.0 0.00 0.07 0.00 99 1004.8
20260905075054 75 113 0.0 0.0 0.00 0.07 0.00 99 1004.9
20260905074954 75 113 0.0 0.0 0.00 0.07 0.00 99 1004.9
20260905074855 75 113 0.0 0.0 0.00 0.07 0.00 99 1004.9
20260905074753 75 113 0.0 0.0 0.00 0.07 0.00 99 1004.9
20260905074652 75 113 0.0 0.0 0.00 0.07 0.00 99 1005.0
20260905074553 75 113 0.0 0.0 0.00 0.07 0.00 99 1004.9
20260905074454 75 113 0.0 0.0 0.00 0.07 0.00 99 1004.9
20260905074353 75 113 0.0 0.0 0.00 0.07 0.00 99 1005.0
20260905074252 75 113 0.0 0.0 0.00 0.07 0.00 99 1005.0
20260905074152 75 113 0.0 0.0 0.00 0.07 0.00 99 1005.0
20260905074052 75 113 0.0 0.0 0.00 0.07 0.00 99 1005.0
20260905073953 75 113 0.0 0.0 0.00 0.07 0.00 99 1005.0
20260905073853 75 113 0.0 0.0 0.00 0.07 0.00 99 1005.0
20260905073753 75 113 0.0 0.0 0.00 0.07 0.00 99 1005.0
20260905073653 75 113 0.0 0.0 0.00 0.07 0.00 98 1005.0
20260905073553 75 113 0.0 0.0 0.00 0.07 0.00 98 1005.0
20260905073455 75 113 0.0 0.0 0.00 0.07 0.00 98 1005.1
20260905073352 75 113 0.0 0.0 0.00 0.07 0.00 98 1005.0
20260905073252 75 113 0.0 0.0 0.00 0.07 0.00 98 1005.0
20260905073153 75 113 0.0 0.0 0.00 0.07 0.00 98 1005.0
20260905073055 75 113 0.0 0.0 0.00 0.07 0.00 98 1005.0
20260905072953 75 113 0.0 0.0 0.00 0.07 0.00 98 1005.1
20260905072853 75 113 0.0 0.0 0.00 0.07 0.00 98 1005.1
20260905072753 75 113 0.0 0.0 0.00 0.07 0.00 98 1005.0
20260905072652 75 113 0.0 0.0 0.00 0.07 0.00 98 1005.0
20260905072548 76 113 0.0 0.0 0.00 0.07 0.00 98 1005.1
20260905072441 76 113 0.0 0.0 0.00 0.07 0.00 98 1005.1
20260905072340 76 113 0.0 0.0 0.00 0.07 0.00 98 1005.1
20260905072234 76 113 0.0 0.0 0.00 0.07 0.00 98 1005.1
20260905072134 76 113 0.0 0.0 0.00 0.07 0.00 98 1005.1
20260905072033 76 113 0.0 0.0 0.00 0.07 0.00 98 1005.2
20260905071933 76 113 0.0 0.0 0.00 0.07 0.00 98 1005.2
20260905071832 76 113 0.0 0.0 0.00 0.07 0.00 98 1005.2
20260905071735 76 113 0.0 0.0 0.00 0.07 0.00 98 1005.3
20260905071632 76 113 0.0 0.0 0.00 0.07 0.00 98 1005.2
20260905071532 76 113 0.0 0.0 0.00 0.07 0.00 98 1005.3
20260905071432 76 113 0.0 0.0 0.00 0.07 0.00 98 1005.3
20260905071334 76 113 0.0 0.0 0.00 0.07 0.00 98 1005.3
20260905071234 76 113 0.0 0.0 0.00 0.07 0.00 98 1005.3
20260905071131 76 113 0.0 0.0 0.00 0.07 0.00 98 1005.3
20260905071032 76 113 0.0 0.0 0.00 0.07 0.00 98 1005.3
20260905070932 76 113 0.0 0.0 0.00 0.07 0.00 98 1005.4
20260905070833 76 113 0.0 0.0 0.00 0.07 0.00 98 1005.3
20260905070733 76 113 0.0 0.0 0.00 0.07 0.00 98 1005.3
20260905070632 76 113 0.0 0.0 0.00 0.07 0.00 98 1005.3
20260905070533 76 113 0.0 0.0 0.00 0.07 0.00 98 1005.3
20260905070432 76 113 0.0 0.0 0.00 0.07 0.00 98 1005.4
20260905070333 76 113 0.0 0.0 0.00 0.07 0.00 98 1005.3
20260905070233 76 113 0.0 0.0 0.00 0.07 0.00 98 1005.3
20260905070133 76 113 0.0 0.0 0.00 0.07 0.00 98 1005.4
20260905070032 76 113 0.0 0.0 0.00 0.07 0.00 98 1005.3
20260905065932 76 113 0.0 0.0 0.00 0.07 0.00 98 1005.3
20260905065833 76 113 0.0 0.0 0.00 0.07 0.00 98 1005.3
20260905065731 76 113 0.0 0.0 0.00 0.07 0.00 98 1005.3
20260905065632 76 113 0.0 0.0 0.00 0.07 0.00 98 1005.3
20260905065534 76 113 0.0 0.0 0.00 0.07 0.00 98 1005.3
20260905065433 76 113 0.0 0.0 0.00 0.07 0.00 98 1005.3
20260905065333 76 113 0.0 0.0 0.00 0.07 0.00 98 1005.3
20260905065233 76 113 0.0 0.0 0.00 0.07 0.00 98 1005.3
20260905065132 76 113 0.0 0.0 0.00 0.07 0.00 98 1005.3
20260905065033 76 113 0.0 0.0 0.00 0.07 0.00 98 1005.2
20260905064932 76 113 0.0 0.0 0.00 0.07 0.00 98 1005.3
20260905064833 76 113 0.0 0.0 0.00 0.07 0.00 98 1005.3
20260905064732 76 113 0.0 0.0 0.00 0.07 0.00 98 1005.2
20260905064633 76 113 0.0 0.0 0.00 0.07 0.00 98 1005.3
20260905064532 76 113 0.0 0.0 0.00 0.07 0.00 98 1005.3
20260905064433 76 113 0.0 0.0 0.00 0.07 0.00 98 1005.3
20260905064333 76 113 0.0 0.0 0.00 0.07 0.00 98 1005.3
20260905064233 76 113 0.0 0.0 0.00 0.07 0.00 98 1005.3
20260905064133 76 113 0.0 0.0 0.00 0.07 0.00 98 1005.3
20260905064032 76 113 0.0 0.0 0.00 0.07 0.00 98 1005.3
20260905063931 76 113 0.0 0.0 0.00 0.07 0.00 98 1005.3
20260905063834 76 113 0.0 0.0 0.00 0.07 0.00 98 1005.3
20260905063732 76 113 0.0 0.0 0.00 0.07 0.00 98 1005.3
20260905063633 76 113 0.0 0.0 0.00 0.07 0.00 98 1005.3
20260905063531 76 113 0.0 0.0 0.00 0.07 0.00 98 1005.3
20260905063432 76 113 0.0 0.0 0.00 0.07 0.00 98 1005.3
20260905063328 76 113 0.0 0.0 0.00 0.07 0.00 98 1005.3
20260905063223 76 113 0.0 0.0 0.00 0.07 0.00 98 1005.3
20260905063120 76 113 0.0 0.0 0.00 0.07 0.00 98 1005.3
20260905063010 76 113 0.0 0.0 0.00 0.07 0.00 98 1005.3
20260905062904 76 113 0.0 0.0 0.00 0.07 0.00 98 1005.3
20260905062803 76 113 0.0 0.0 0.00 0.07 0.00 98 1005.3
20260905062703 76 113 0.0 0.0 0.00 0.07 0.00 98 1005.3
20260905062603 76 113 0.0 0.0 0.00 0.07 0.00 98 1005.3
20260905062504 76 113 0.0 0.0 0.00 0.07 0.00 98 1005.3
20260905062405 76 113 0.0 0.0 0.00 0.07 0.00 98 1005.3
20260905062306 76 113 0.0 0.0 0.00 0.07 0.00 98 1005.3
20260905062204 76 113 0.0 0.0 0.00 0.07 0.00 98 1005.4
20260905062104 76 113 0.0 0.0 0.00 0.07 0.00 98 1005.3
20260905062006 76 113 0.0 0.0 0.00 0.07 0.00 98 1005.3
20260905061905 76 113 0.0 0.0 0.00 0.07 0.00 98 1005.4
20260905061803 76 113 0.0 0.0 0.00 0.07 0.00 98 1005.4
20260905061703 76 113 0.0 0.0 0.00 0.07 0.00 98 1005.4
20260905061605 76 113 0.0 0.0 0.00 0.07 0.00 98 1005.4
20260905061505 76 113 0.0 0.0 0.00 0.07 0.00 98 1005.4
20260905061402 76 113 0.0 0.0 0.00 0.07 0.00 98 1005.4
20260905061303 76 113 0.0 0.0 0.00 0.07 0.00 98 1005.3
20260905061203 76 113 0.0 0.0 0.00 0.07 0.00 97 1005.4
20260905061104 76 113 0.0 0.0 0.00 0.07 0.00 97 1005.4
20260905061004 76 113 0.0 0.0 0.00 0.07 0.00 97 1005.4
20260905060901 76 113 0.0 0.0 0.00 0.07 0.00 97 1005.4
20260905060802 76 113 0.0 0.0 0.00 0.07 0.00 97 1005.4
20260905060705 76 113 0.0 0.0 0.00 0.07 0.00 97 1005.4
20260905060603 76 113 0.0 0.0 0.00 0.07 0.00 97 1005.4
20260905060505 76 113 0.0 0.0 0.00 0.07 0.00 97 1005.4
20260905060404 76 113 0.0 0.0 0.00 0.07 0.00 97 1005.3
20260905060305 76 113 0.0 0.0 0.00 0.07 0.00 97 1005.4
20260905060204 76 113 0.0 0.0 0.00 0.07 0.00 97 1005.3
20260905060103 76 113 0.0 0.0 0.00 0.07 0.00 97 1005.3
20260905060005 76 113 0.0 0.0 0.00 0.07 0.00 97 1005.4
20260905055906 76 113 0.0 0.0 0.00 0.07 0.00 97 1005.3
20260905055803 76 113 0.0 0.0 0.00 0.07 0.00 97 1005.4
20260905055703 76 113 0.0 0.0 0.00 0.07 0.00 97 1005.4
20260905055602 76 113 0.0 0.0 0.00 0.07 0.00 97 1005.4
20260905055503 76 113 0.0 0.0 0.00 0.07 0.00 97 1005.5
20260905055352 76 113 0.0 0.0 0.00 0.07 0.00 97 1005.4
20260905055252 76 113 0.0 0.0 0.00 0.07 0.00 97 1005.4
20260905055152 76 113 0.0 0.0 0.00 0.07 0.00 97 1005.5
20260905055050 76 113 0.0 0.0 0.00 0.07 0.00 97 1005.5
20260905054952 76 113 0.0 0.0 0.00 0.07 0.00 97 1005.5
20260905054852 76 113 0.0 0.0 0.00 0.07 0.00 97 1005.4
20260905054751 76 113 0.0 0.0 0.00 0.07 0.00 97 1005.4
20260905054650 77 113 0.0 0.0 0.00 0.07 0.00 97 1005.4
20260905054551 77 113 0.0 0.0 0.00 0.07 0.00 97 1005.4
20260905054449 77 113 0.0 0.0 0.00 0.07 0.00 97 1005.4
20260905054352 77 113 0.0 0.0 0.00 0.07 0.00 97 1005.3
20260905054251 77 113 0.0 0.0 0.00 0.07 0.00 97 1005.3
20260905054149 77 113 0.0 0.0 0.00 0.07 0.00 97 1005.3
20260905054051 77 113 0.0 0.0 0.00 0.07 0.00 97 1005.4
20260905053953 77 113 0.0 0.0 0.00 0.07 0.00 97 1005.3
20260905053849 77 113 0.0 0.0 0.00 0.07 0.00 97 1005.4
20260905053752 77 113 0.0 0.0 0.00 0.07 0.00 97 1005.4
20260905053651 77 113 0.0 0.0 0.00 0.07 0.00 97 1005.4
20260905053552 77 113 0.0 0.0 0.00 0.07 0.00 97 1005.4
20260905053450 77 113 0.0 0.0 0.00 0.07 0.00 97 1005.4
20260905053350 77 113 0.0 0.0 0.00 0.07 0.00 97 1005.4
20260905053249 77 113 0.0 0.0 0.00 0.07 0.00 97 1005.3
20260905053152 77 113 0.0 0.0 0.00 0.07 0.00 97 1005.4
20260905053052 77 113 0.0 0.0 0.00 0.07 0.00 97 1005.4
20260905052950 77 113 0.0 0.0 0.00 0.07 0.00 97 1005.4
20260905052849 77 113 0.0 0.0 0.00 0.07 0.00 97 1005.4
20260905052749 77 113 0.0 0.0 0.00 0.07 0.00 97 1005.4
20260905052650 77 113 0.0 0.0 0.00 0.07 0.00 97 1005.4
20260905052552 77 113 0.0 0.0 0.00 0.07 0.00 97 1005.5
20260905052451 77 113 0.0 0.0 0.00 0.07 0.00 97 1005.5
20260905052351 77 113 0.0 0.0 0.00 0.07 0.00 97 1005.6
20260905052250 77 113 0.0 0.0 0.00 0.07 0.00 97 1005.6
20260905052152 77 113 0.0 0.0 0.00 0.07 0.00 97 1005.6
20260905052049 77 113 0.0 0.0 0.00 0.07 0.00 97 1005.5
20260905051952 77 113 0.0 0.0 0.00 0.07 0.00 97 1005.5
20260905051851 77 113 0.0 0.0 0.00 0.07 0.00 97 1005.5
20260905051754 77 113 0.0 0.0 0.00 0.07 0.00 97 1005.4
20260905051649 77 113 0.0 0.0 0.00 0.07 0.00 97 1005.4
20260905051552 77 113 0.0 0.0 0.00 0.07 0.00 97 1005.5
20260905051451 77 113 0.0 0.0 0.00 0.07 0.00 97 1005.5
20260905051349 77 113 0.0 0.0 0.00 0.07 0.00 97 1005.4
20260905051251 77 113 0.0 0.0 0.00 0.07 0.00 97 1005.4
20260905051149 77 113 0.0 0.0 0.00 0.07 0.00 97 1005.5
20260905051051 77 113 0.0 0.0 0.00 0.07 0.00 97 1005.4
20260905050949 78 113 0.0 0.0 0.00 0.07 0.00 97 1005.4
20260905050852 78 113 0.0 0.0 0.00 0.07 0.00 97 1005.4
20260905050750 78 113 0.0 0.0 0.00 0.07 0.00 97 1005.5
20260905050650 78 113 0.0 0.0 0.00 0.07 0.00 97 1005.5
20260905050549 78 113 0.0 0.0 0.00 0.07 0.00 96 1005.5
20260905050451 78 113 0.0 0.0 0.00 0.07 0.00 96 1005.5
20260905050349 78 113 0.0 0.0 0.00 0.07 0.00 96 1005.5
20260905050253 78 113 0.0 0.0 0.00 0.07 0.00 96 1005.5
20260905050149 78 113 0.0 0.0 0.00 0.07 0.00 96 1005.5
20260905050051 78 113 0.0 0.0 0.00 0.07 0.00 96 1005.5
20260905045950 78 113 0.0 0.0 0.00 0.07 0.00 96 1005.6
20260905045849 78 113 0.0 0.0 0.00 0.07 0.00 96 1005.5
20260905045750 78 113 0.0 0.0 0.00 0.07 0.00 96 1005.5
20260905045649 78 113 0.0 0.0 0.00 0.07 0.00 96 1005.5
20260905045554 78 113 0.0 0.0 0.00 0.07 0.00 96 1005.5
20260905045451 78 113 0.0 0.0 0.00 0.07 0.00 96 1005.5
20260905045348 78 113 0.0 0.0 0.00 0.07 0.00 96 1005.5
20260905045248 78 113 0.0 0.0 0.00 0.07 0.00 96 1005.5
20260905045148 78 113 0.0 0.0 0.00 0.07 0.00 96 1005.5
20260905045051 78 113 0.0 0.0 0.00 0.07 0.00 96 1005.5
20260905044951 78 113 0.0 0.0 0.00 0.07 0.00 96 1005.5
20260905044848 78 113 0.0 0.0 0.00 0.07 0.00 96 1005.5
20260905044749 78 113 0.0 0.0 0.00 0.07 0.00 96 1005.6
20260905044650 78 113 0.0 0.0 0.00 0.07 0.00 95 1005.5
20260905044550 78 113 0.0 0.0 0.00 0.07 0.00 95 1005.5
20260905044448 78 113 0.0 0.0 0.00 0.07 0.00 95 1005.4
20260905044351 78 113 0.0 0.0 0.00 0.07 0.00 95 1005.4
20260905044251 78 113 0.0 0.0 0.00 0.07 0.00 95 1005.4
20260905044151 78 113 0.0 0.0 0.00 0.07 0.00 95 1005.4
20260905044048 78 113 0.0 0.0 0.00 0.07 0.00 95 1005.4
20260905043950 78 113 0.0 0.0 0.00 0.07 0.00 95 1005.4
20260905043848 78 113 0.0 0.0 0.00 0.07 0.00 95 1005.4
20260905043752 78 113 0.0 0.0 0.00 0.07 0.00 95 1005.4
20260905043650 78 113 0.0 0.0 0.00 0.07 0.00 95 1005.4
20260905043548 78 113 0.0 0.0 0.00 0.07 0.00 95 1005.4
20260905043449 78 113 0.0 0.0 0.00 0.07 0.00 95 1005.4
20260905043348 78 113 0.0 0.0 0.00 0.07 0.00 95 1005.4
20260905043250 78 113 0.0 0.0 0.00 0.07 0.00 95 1005.4
20260905043150 78 113 0.0 0.0 0.00 0.07 0.00 95 1005.4
20260905043049 78 113 0.0 0.0 0.00 0.07 0.00 95 1005.4
20260905042949 78 113 0.0 0.0 0.00 0.07 0.00 95 1005.4
20260905042852 78 113 0.0 0.0 0.00 0.07 0.00 95 1005.5
20260905042751 78 113 0.0 0.0 0.00 0.07 0.00 95 1005.5
20260905042648 78 113 0.0 0.0 0.00 0.07 0.00 95 1005.5
20260905042550 78 113 0.0 0.0 0.00 0.07 0.00 95 1005.4
20260905042449 78 113 0.0 0.0 0.00 0.07 0.00 95 1005.4
20260905042351 78 113 0.0 0.0 0.00 0.07 0.00 95 1005.5
20260905042248 78 113 0.0 0.0 0.00 0.07 0.00 95 1005.4
20260905042148 78 113 0.0 0.0 0.00 0.07 0.00 95 1005.5
20260905042048 78 113 0.0 0.0 0.00 0.07 0.00 95 1005.4
20260905041949 78 113 0.0 0.0 0.00 0.07 0.00 95 1005.5
20260905041850 78 113 0.0 0.0 0.00 0.07 0.00 95 1005.4
20260905041748 78 113 0.0 0.0 0.00 0.07 0.00 95 1005.4
20260905041648 78 113 0.0 0.0 0.00 0.07 0.00 95 1005.5
20260905041551 78 113 0.0 0.0 0.00 0.07 0.00 95 1005.5
20260905041449 78 113 0.0 0.0 0.00 0.07 0.00 95 1005.6
20260905041350 78 113 0.0 0.0 0.00 0.07 0.00 95 1005.6
20260905041247 78 113 0.0 0.0 0.00 0.07 0.00 95 1005.6
20260905041148 78 113 0.0 0.0 0.00 0.07 0.00 95 1005.7
20260905041048 78 113 0.0 0.0 0.00 0.07 0.00 95 1005.6
20260905040949 78 113 0.0 0.0 0.00 0.07 0.00 95 1005.6
20260905040849 78 113 0.0 0.0 0.00 0.07 0.00 95 1005.6
20260905040749 79 113 0.0 0.0 0.00 0.07 0.00 95 1005.6
20260905040648 79 113 0.0 0.0 0.00 0.07 0.00 95 1005.6
20260905040550 79 113 0.0 0.0 0.00 0.07 0.00 95 1005.7
20260905040448 79 113 0.0 0.0 0.00 0.07 0.00 94 1005.6
20260905040349 79 113 0.0 0.0 0.00 0.07 0.00 94 1005.6
20260905040248 79 113 0.0 0.0 0.00 0.07 0.00 94 1005.6
20260905040150 79 113 0.0 0.0 0.00 0.07 0.00 94 1005.6
20260905040049 79 113 0.0 0.0 0.00 0.07 0.00 94 1005.5
20260905035949 79 113 0.0 0.0 0.00 0.07 0.07 94 1005.6
20260905035850 79 113 0.0 0.0 0.00 0.07 0.07 94 1005.6
20260905035747 79 113 0.0 0.0 0.00 0.07 0.07 94 1005.6
20260905035649 79 113 0.0 0.0 0.00 0.07 0.07 94 1005.5
20260905035547 79 113 0.0 0.0 0.00 0.07 0.07 94 1005.6
20260905035448 79 113 0.0 0.0 0.00 0.07 0.07 94 1005.6
20260905035347 79 113 0.0 0.0 0.00 0.07 0.07 94 1005.6
20260905035251 79 113 0.0 0.0 0.00 0.07 0.07 94 1005.6
20260905035149 79 113 0.0 0.0 0.00 0.07 0.07 94 1005.6
20260905035049 79 113 0.0 0.0 0.00 0.07 0.07 94 1005.6
20260905034947 79 113 0.0 0.0 0.00 0.07 0.07 94 1005.6
20260905034851 79 113 0.0 0.0 0.00 0.07 0.07 94 1005.6
20260905034749 79 113 0.0 0.0 0.00 0.07 0.07 94 1005.6
20260905034649 79 113 0.0 0.0 0.00 0.07 0.07 94 1005.7
20260905034548 79 113 0.0 0.0 0.00 0.07 0.07 94 1005.8
20260905034448 79 113 0.0 0.0 0.00 0.07 0.07 94 1005.7
20260905034348 79 113 0.0 0.0 0.00 0.07 0.07 94 1005.8
20260905034247 79 113 0.0 0.0 0.00 0.07 0.07 94 1005.7
20260905034149 79 113 0.0 0.0 0.00 0.07 0.07 94 1005.7
20260905034047 79 113 0.0 0.0 0.00 0.07 0.07 94 1005.7
20260905033950 79 113 0.0 0.0 0.00 0.07 0.07 94 1005.7
20260905033849 79 113 0.0 0.0 0.00 0.07 0.07 94 1005.8
20260905033746 79 113 0.0 0.0 0.00 0.07 0.07 94 1005.8
20260905033648 79 113 0.0 0.0 0.00 0.07 0.07 94 1005.7
20260905033546 79 113 0.0 0.0 0.00 0.07 0.07 94 1005.7
20260905033449 79 113 0.0 0.0 0.00 0.07 0.07 94 1005.8
20260905033346 79 113 0.0 0.0 0.00 0.07 0.07 94 1005.8
20260905033248 79 113 0.0 0.0 0.00 0.07 0.07 94 1005.8
20260905033148 79 113 0.0 0.0 0.00 0.07 0.07 94 1005.8
20260905033050 80 113 0.0 0.0 0.00 0.07 0.07 94 1005.8
20260905032947 80 113 0.0 0.0 0.00 0.07 0.07 94 1005.8
20260905032848 80 113 0.0 0.0 0.00 0.07 0.07 94 1005.7
20260905032747 80 113 0.0 0.0 0.00 0.07 0.07 94 1005.8
20260905032647 80 113 0.0 0.0 0.00 0.07 0.07 94 1005.8
20260905032551 80 113 0.0 0.0 0.00 0.07 0.07 94 1005.7
20260905032447 80 113 0.0 0.0 0.00 0.07 0.07 94 1005.7
20260905032347 80 113 0.0 0.0 0.00 0.07 0.07 94 1005.7
20260905032246 80 113 0.0 0.0 0.00 0.07 0.07 94 1005.7
20260905032149 80 113 0.0 0.0 0.00 0.07 0.07 94 1005.7
20260905032047 80 113 0.0 0.0 0.00 0.07 0.07 94 1005.7
20260905031946 80 113 0.0 0.0 0.00 0.07 0.07 94 1005.7
20260905031848 80 113 0.0 0.0 0.00 0.07 0.07 94 1005.7
20260905031750 80 113 0.0 0.0 0.00 0.07 0.07 94 1005.8
20260905031648 80 113 0.0 0.0 0.00 0.07 0.07 94 1005.7
20260905031548 80 113 0.0 0.0 0.00 0.07 0.07 94 1005.7
20260905031449 80 113 0.0 0.0 0.00 0.07 0.07 94 1005.7
20260905031348 80 113 0.0 0.0 0.00 0.07 0.07 94 1005.8
20260905031250 80 113 0.0 0.0 0.00 0.07 0.07 93 1005.8
20260905031148 80 113 0.0 0.0 0.00 0.07 0.07 93 1005.7
20260905031047 80 113 0.0 0.0 0.00 0.07 0.07 93 1005.7
20260905030948 80 113 0.0 0.0 0.00 0.07 0.07 93 1005.7
20260905030849 80 113 0.0 0.0 0.00 0.07 0.07 93 1005.8
20260905030749 80 113 0.0 0.0 0.00 0.07 0.07 93 1005.7
20260905030647 80 113 0.0 0.0 0.00 0.07 0.07 93 1005.7
20260905030546 80 113 0.0 0.0 0.00 0.07 0.07 93 1005.7
20260905030447 80 113 0.0 0.0 0.00 0.07 0.07 93 1005.7
20260905030351 80 113 0.0 0.0 0.00 0.07 0.07 93 1005.7
20260905030247 80 113 0.0 0.0 0.00 0.07 0.07 93 1005.7
20260905030146 80 113 0.0 0.0 0.00 0.07 0.07 93 1005.7
20260905030048 80 113 0.0 0.0 0.00 0.07 0.07 93 1005.6
20260905025945 80 113 0.0 0.0 0.00 0.07 0.07 93 1005.6
20260905025847 80 113 0.0 0.0 0.00 0.07 0.07 93 1005.6
20260905025746 80 113 0.0 0.0 0.00 0.07 0.07 93 1005.6
20260905025645 80 113 0.0 0.0 0.00 0.07 0.07 92 1005.6
20260905025548 80 113 0.0 0.0 0.00 0.07 0.07 92 1005.6
20260905025449 80 113 0.0 0.0 0.00 0.07 0.07 92 1005.6
20260905025347 80 113 0.0 0.0 0.00 0.07 0.07 92 1005.6
20260905025247 80 113 0.0 0.0 0.00 0.07 0.07 92 1005.7
20260905025147 81 113 0.0 0.0 0.00 0.07 0.07 92 1005.6
20260905025045 81 113 0.0 0.0 0.00 0.07 0.07 92 1005.7
20260905024948 81 113 0.0 0.0 0.00 0.07 0.07 92 1005.6
20260905024846 81 113 0.0 0.0 0.00 0.07 0.07 92 1005.7
20260905024746 81 113 0.0 0.0 0.00 0.07 0.07 92 1005.7
20260905024649 81 113 0.0 0.0 0.00 0.07 0.07 92 1005.7
20260905024549 81 113 0.0 0.0 0.00 0.07 0.07 92 1005.8
20260905024447 81 113 0.0 0.0 0.00 0.07 0.07 92 1005.7
20260905024346 81 113 0.0 0.0 0.00 0.07 0.07 92 1005.7
20260905024247 81 113 0.0 0.0 0.00 0.07 0.07 92 1005.6
20260905024145 81 113 0.0 0.0 0.00 0.07 0.07 92 1005.6
20260905024047 81 113 0.0 0.0 0.00 0.07 0.07 92 1005.6
20260905023947 81 113 0.0 0.0 0.00 0.07 0.07 92 1005.6
20260905023845 81 113 0.0 0.0 0.00 0.07 0.07 92 1005.6
20260905023745 81 113 0.0 0.0 0.00 0.07 0.07 92 1005.5
20260905023646 81 113 0.0 0.0 0.00 0.07 0.07 92 1005.6
20260905023546 81 113 0.0 0.0 0.00 0.07 0.07 92 1005.5
20260905023446 81 113 0.0 0.0 0.00 0.07 0.07 92 1005.5
20260905023347 81 113 0.0 0.0 0.00 0.07 0.07 91 1005.5
20260905023248 81 113 0.0 0.0 0.00 0.07 0.07 91 1005.5
20260905023147 81 113 0.0 0.0 0.00 0.07 0.07 91 1005.4
20260905023046 81 113 0.0 0.0 0.00 0.07 0.07 91 1005.5
20260905022946 81 113 0.0 0.0 0.00 0.07 0.07 91 1005.5
20260905022848 81 113 0.0 0.0 0.00 0.07 0.07 91 1005.5
20260905022748 81 113 0.0 0.0 0.00 0.07 0.07 91 1005.5
20260905022647 82 113 0.0 0.0 0.00 0.07 0.07 91 1005.5
20260905022547 82 113 0.0 0.0 0.00 0.07 0.07 91 1005.5
20260905022446 82 113 0.0 0.0 0.00 0.07 0.07 91 1005.5
20260905022346 82 113 0.0 0.0 0.00 0.07 0.07 91 1005.4
20260905022247 82 113 0.0 0.0 0.00 0.07 0.07 91 1005.5
20260905022147 82 113 0.0 0.0 0.00 0.07 0.07 91 1005.4
20260905022047 82 113 0.0 0.0 0.00 0.07 0.07 91 1005.4
20260905021945 82 113 0.0 0.0 0.00 0.07 0.07 91 1005.4
20260905021847 82 113 0.0 0.0 0.00 0.07 0.07 90 1005.4
20260905021747 82 113 0.0 0.0 0.00 0.07 0.07 90 1005.4
20260905021643 82 113 0.0 0.0 0.00 0.07 0.07 90 1005.3
20260905021531 82 113 0.0 0.0 0.00 0.07 0.07 90 1005.4
20260905021431 82 113 0.0 0.0 0.00 0.07 0.07 90 1005.3
20260905021333 82 113 0.0 0.0 0.00 0.07 0.07 90 1005.3
20260905021234 82 113 0.0 0.0 0.00 0.07 0.07 90 1005.2
20260905021131 82 113 0.0 0.0 0.00 0.07 0.07 90 1005.2
20260905021031 82 113 0.0 0.0 0.00 0.07 0.07 90 1005.3
20260905020933 82 113 0.0 0.0 0.00 0.07 0.07 90 1005.2
20260905020831 82 113 0.0 0.0 0.00 0.07 0.07 90 1005.3
20260905020732 82 113 0.0 0.0 0.00 0.07 0.07 90 1005.3
20260905020633 82 113 0.0 0.0 0.00 0.07 0.07 90 1005.2
20260905020531 82 113 0.0 0.0 0.00 0.07 0.07 89 1005.1
20260905020433 82 113 0.0 0.0 0.00 0.07 0.07 89 1005.2
20260905020333 82 113 0.0 0.0 0.00 0.07 0.07 89 1005.1
20260905020231 83 113 0.0 0.0 0.00 0.07 0.07 89 1005.1
20260905020132 83 113 0.0 0.0 0.00 0.07 0.07 89 1005.0
20260905020034 83 113 0.0 0.0 0.00 0.07 0.07 89 1005.0
20260905015931 83 113 0.0 0.0 0.00 0.07 0.07 89 1005.0
20260905015832 83 113 0.0 0.0 0.00 0.07 0.07 89 1005.0
20260905015731 83 113 0.0 0.0 0.00 0.07 0.07 89 1005.0
20260905015633 83 113 0.0 0.0 0.00 0.07 0.07 89 1005.0
20260905015533 83 113 0.0 0.0 0.00 0.07 0.07 89 1005.0
20260905015434 83 113 0.0 0.0 0.00 0.07 0.07 89 1005.0
20260905015333 83 113 0.0 0.0 0.00 0.07 0.07 89 1005.0
20260905015232 83 113 0.0 0.0 0.00 0.07 0.07 89 1005.0
20260905015133 83 113 0.0 0.0 0.00 0.07 0.07 89 1005.0
20260905015025 83 113 0.0 0.0 0.00 0.07 0.07 89 1005.0
20260905014923 83 113 0.0 0.0 0.00 0.07 0.07 89 1005.0
20260905014821 83 113 0.0 0.0 0.00 0.07 0.07 89 1004.9
20260905014720 83 113 0.0 0.0 0.00 0.07 0.07 89 1005.0
20260905014618 83 113 0.0 0.0 0.00 0.07 0.07 89 1004.9
20260905014517 83 113 0.0 0.0 0.00 0.07 0.07 88 1004.9
20260905014412 83 113 0.0 0.0 0.00 0.07 0.07 88 1004.9
20260905014309 83 113 0.0 0.0 0.00 0.07 0.07 88 1004.8
20260905014203 83 113 0.0 0.0 0.00 0.07 0.07 88 1004.9
20260905014104 83 113 0.0 0.0 0.00 0.07 0.07 88 1004.9
20260905014004 84 113 0.0 0.0 0.00 0.07 0.07 88 1004.9
20260905013902 84 113 0.0 0.0 0.00 0.07 0.07 88 1004.9
20260905013805 84 113 0.0 0.0 0.00 0.07 0.07 88 1004.8
20260905013703 84 113 0.0 0.0 0.00 0.07 0.07 88 1004.9
20260905013603 84 113 0.0 0.0 0.00 0.07 0.07 88 1004.9
20260905013504 84 113 0.0 0.0 0.00 0.07 0.07 88 1004.9
20260905013405 84 113 0.0 0.0 0.00 0.07 0.07 88 1004.8
20260905013304 84 113 0.0 0.0 0.00 0.07 0.07 88 1004.8
20260905013205 84 113 0.0 0.0 0.00 0.07 0.07 88 1004.8
20260905013103 84 113 0.0 0.0 0.00 0.07 0.07 88 1004.8
20260905013005 84 113 0.0 0.0 0.00 0.07 0.07 88 1004.7
20260905012905 84 113 0.0 0.0 0.00 0.07 0.07 88 1004.7
20260905012755 84 113 0.0 0.0 0.00 0.07 0.07 87 1004.7
20260905012650 84 113 0.0 0.0 0.00 0.07 0.07 87 1004.7
20260905012548 84 113 0.0 0.0 0.00 0.07 0.07 87 1004.7
20260905012445 84 113 0.0 0.0 0.00 0.07 0.07 87 1004.6
20260905012343 84 113 0.0 0.0 0.00 0.07 0.07 87 1004.7
20260905012241 84 113 0.0 0.0 0.00 0.07 0.07 87 1004.7
20260905012135 85 113 0.0 0.0 0.00 0.07 0.07 87 1004.6
20260905012033 85 113 0.0 0.0 0.00 0.07 0.07 87 1004.7
20260905011932 85 113 0.0 0.0 0.00 0.07 0.07 87 1004.6
20260905011832 85 113 0.0 0.0 0.00 0.07 0.07 87 1004.6
20260905011731 85 113 0.0 0.0 0.00 0.07 0.07 87 1004.6
20260905011632 85 113 0.0 0.0 0.00 0.07 0.07 87 1004.6
20260905011534 85 113 0.0 0.0 0.00 0.07 0.07 87 1004.6
20260905011434 85 113 0.0 0.0 0.00 0.07 0.07 87 1004.6
20260905011332 85 113 0.0 0.0 0.00 0.07 0.07 87 1004.6
20260905011231 85 113 0.0 0.0 0.00 0.07 0.07 87 1004.6
20260905011133 85 113 0.0 0.0 0.00 0.07 0.07 87 1004.6
20260905011034 85 113 0.0 0.0 0.00 0.07 0.07 87 1004.6
20260905010931 85 113 0.0 0.0 0.00 0.07 0.07 87 1004.6
20260905010832 85 113 0.0 0.0 0.00 0.07 0.07 87 1004.7
20260905010731 85 113 0.0 0.0 0.00 0.07 0.07 87 1004.7
20260905010634 85 113 0.0 0.0 0.00 0.07 0.07 87 1004.6
20260905010531 85 113 0.0 0.0 0.00 0.07 0.07 87 1004.7
20260905010431 85 113 0.0 0.0 0.00 0.07 0.07 86 1004.7
20260905010333 85 113 0.0 0.0 0.00 0.07 0.07 86 1004.8
20260905010231 85 113 0.0 0.0 0.00 0.07 0.07 86 1004.8
20260905010132 86 113 0.0 0.0 0.00 0.07 0.07 86 1004.6
20260905010027 86 113 0.0 0.0 0.00 0.07 0.07 86 1004.6
20260905005927 86 113 0.0 0.0 0.00 0.07 0.07 86 1004.6
20260905005826 86 113 0.0 0.0 0.00 0.07 0.07 86 1004.7
20260905005723 86 113 0.0 0.0 0.00 0.07 0.07 86 1004.6
20260905005620 86 113 0.0 0.0 0.00 0.07 0.07 86 1004.6
20260905005514 86 113 0.0 0.0 0.00 0.07 0.07 86 1004.6
20260905005409 86 113 0.0 0.0 0.00 0.07 0.07 86 1004.6
20260905005306 86 113 0.0 0.0 0.00 0.07 0.07 85 1004.5
20260905005204 86 113 0.0 0.0 0.00 0.07 0.07 85 1004.5
20260905005102 86 113 0.0 0.0 0.00 0.07 0.07 85 1004.5
20260905005002 86 113 0.0 0.0 0.00 0.07 0.07 85 1004.5
20260905004902 86 113 0.0 0.0 0.00 0.07 0.07 85 1004.5
20260905004804 86 113 0.0 0.0 0.00 0.07 0.07 85 1004.6
20260905004705 86 113 0.0 0.0 0.00 0.07 0.07 85 1004.7
20260905004606 86 113 0.0 0.0 0.00 0.07 0.07 85 1004.6
20260905004503 86 113 0.0 0.0 0.00 0.07 0.07 85 1004.6
20260905004404 86 113 0.0 0.0 0.00 0.07 0.07 85 1004.6
20260905004302 86 113 0.0 0.0 0.00 0.07 0.07 85 1004.6
20260905004158 86 113 0.0 0.0 0.00 0.07 0.07 85 1004.5
20260905004043 86 113 0.0 0.0 0.00 0.07 0.07 85 1004.6
20260905003944 87 113 0.0 0.0 0.00 0.07 0.07 85 1004.5
20260905003843 87 113 0.0 0.0 0.00 0.07 0.07 85 1004.4
20260905003744 87 113 0.0 0.0 0.00 0.07 0.07 85 1004.4
20260905003645 87 113 0.0 0.0 0.00 0.07 0.07 85 1004.4
20260905003544 87 113 0.0 0.0 0.00 0.07 0.07 85 1004.4
20260905003444 87 113 0.0 0.0 0.00 0.07 0.07 85 1004.4
20260905003345 87 113 0.0 0.0 0.00 0.07 0.07 84 1004.3
20260905003246 87 113 0.0 0.0 0.00 0.07 0.07 84 1004.4
20260905003146 87 113 0.0 0.0 0.00 0.07 0.07 84 1004.3
20260905003044 87 113 0.0 0.0 0.00 0.07 0.07 84 1004.3
20260905002943 87 113 0.0 0.0 0.00 0.07 0.07 84 1004.2
20260905002848 87 113 0.0 0.0 0.00 0.07 0.07 84 1004.3
20260905002743 87 113 0.0 0.0 0.00 0.07 0.07 84 1004.2
20260905002643 87 113 0.0 0.0 0.00 0.07 0.07 84 1004.2
20260905002543 87 113 0.0 0.0 0.00 0.07 0.07 84 1004.3
20260905002442 87 113 0.0 0.0 0.00 0.07 0.07 84 1004.2
20260905002342 87 113 0.0 0.0 0.00 0.07 0.07 84 1004.3
20260905002242 87 113 0.0 0.0 0.00 0.07 0.07 84 1004.2
20260905002143 87 173 0.0 0.0 0.00 0.07 0.07 84 1004.2
20260905002044 87 173 0.0 0.0 0.00 0.07 0.07 84 1004.2
20260905001947 87 173 0.0 0.0 0.00 0.07 0.07 84 1004.2
20260905001845 87 173 0.0 0.0 0.00 0.07 0.07 84 1004.2
20260905001744 87 173 0.0 0.0 0.00 0.07 0.07 84 1004.2
20260905001644 87 173 0.0 0.0 0.00 0.07 0.07 84 1004.2
20260905001542 87 173 0.0 0.0 0.00 0.07 0.07 84 1004.2
20260905001445 88 173 0.0 0.0 0.00 0.07 0.07 84 1004.2
20260905001343 88 173 0.0 0.0 0.00 0.07 0.07 83 1004.2
20260905001243 88 173 0.0 0.0 0.00 0.07 0.07 83 1004.1
20260905001142 88 173 0.0 0.0 0.00 0.07 0.07 83 1004.1
20260905001042 88 173 0.0 0.0 0.00 0.07 0.07 83 1004.2
20260905000946 88 173 0.0 0.0 0.00 0.07 0.07 83 1004.2
20260905000844 88 173 0.0 0.0 0.00 0.07 0.07 83 1004.2
20260905000743 88 173 0.0 0.0 0.00 0.07 0.07 83 1004.1